FW3681 Weather Reports


time (UTC)temp
F
wind
direction
speed
knots
gust
knots
rain 1hr
in
rain 24hr
in
rain mn
in
humidity
%
barometer
mb
20260510024605 66 232 0.0 2.6 0.00 1.34 1.31 96 1014.2
20260510024507 66 232 0.0 2.6 0.00 1.34 1.31 96 1014.3
20260510024403 66 232 0.0 2.6 0.00 1.34 1.31 96 1014.3
20260510024305 66 232 0.0 2.6 0.00 1.34 1.31 96 1014.3
20260510024205 66 232 0.0 2.6 0.00 1.34 1.31 96 1014.4
20260510024104 66 232 0.0 2.6 0.00 1.34 1.31 96 1014.4
20260510024007 66 204 0.0 2.6 0.00 1.34 1.31 96 1014.4
20260510023904 66 158 1.7 2.6 0.00 1.34 1.31 96 1014.5
20260510023805 66 194 1.7 2.6 0.00 1.34 1.31 96 1014.5
20260510023604 66 178 1.7 2.6 0.00 1.34 1.31 96 1014.6
20260510023505 66 184 0.0 1.7 0.00 1.34 1.31 96 1014.5
20260510023405 66 197 0.9 1.7 0.00 1.34 1.31 96 1014.5
20260510023303 66 174 1.7 1.7 0.00 1.34 1.31 96 1014.6
20260510023204 66 179 0.0 1.7 0.00 1.34 1.31 96 1014.6
20260510023105 66 186 0.0 0.0 0.00 1.34 1.31 96 1014.6
20260510023007 66 198 0.0 1.7 0.00 1.34 1.31 96 1014.5
20260510022904 66 181 0.0 1.7 0.00 1.34 1.31 96 1014.6
20260510022804 66 181 0.0 2.6 0.00 1.34 1.31 96 1014.6
20260510022703 66 181 0.0 2.6 0.00 1.34 1.31 96 1014.5
20260510022505 66 181 0.0 2.6 0.00 1.34 1.31 96 1014.3
20260510022404 66 181 0.0 2.6 0.00 1.34 1.31 96 1014.3
20260510022204 66 181 0.0 2.6 0.00 1.34 1.31 96 1014.3
20260510022104 66 181 0.0 2.6 0.00 1.34 1.31 96 1014.3
20260510022007 66 198 0.9 2.6 0.00 1.34 1.31 96 1014.1
20260510021805 66 184 2.6 2.6 0.00 1.34 1.31 96 1014.1
20260510021705 66 165 2.6 2.6 0.00 1.34 1.31 96 1014.2
20260510021604 66 137 1.7 2.6 0.00 1.34 1.31 96 1014.2
20260510021506 66 155 0.0 2.6 0.00 1.34 1.31 96 1014.2
20260510021403 66 165 0.0 2.6 0.00 1.34 1.31 96 1014.3
20260510021303 66 204 1.7 2.6 0.00 1.34 1.31 96 1014.2
20260510021204 66 198 1.7 1.7 0.00 1.34 1.31 96 1014.2
20260510021007 66 183 0.0 1.7 0.00 1.34 1.31 96 1014.2
20260510020904 66 213 0.0 1.7 0.00 1.34 1.31 96 1014.2
20260510020805 66 220 0.0 1.7 0.00 1.34 1.31 96 1014.2
20260510020603 66 213 0.0 1.7 0.00 1.34 1.31 96 1014.1
20260510020506 66 213 0.0 1.7 0.00 1.34 1.31 96 1014.1
20260510020405 66 213 0.0 1.7 0.00 1.34 1.31 96 1014.2
20260510020304 66 204 0.0 1.7 0.00 1.34 1.31 96 1014.2
20260510020203 66 216 0.0 1.7 0.00 1.34 1.31 96 1014.1
20260510020105 66 226 0.0 2.6 0.00 1.34 1.31 96 1014.2
20260510020008 66 246 0.9 2.6 0.00 1.35 1.31 96 1014.2
20260510015902 66 227 0.0 2.6 0.00 1.35 1.31 96 1014.1
20260510015803 66 229 0.0 2.6 0.00 1.35 1.31 96 1014.1
20260510015703 66 226 0.0 2.6 0.00 1.35 1.31 96 1014.1
20260510015604 66 226 0.0 2.6 0.00 1.35 1.31 96 1013.9
20260510015506 66 226 0.0 2.6 0.00 1.35 1.31 96 1013.9
20260510015403 66 245 0.0 2.6 0.00 1.35 1.31 96 1014.0
20260510015306 66 250 0.9 2.6 0.00 1.35 1.31 96 1013.9
20260510015202 66 270 1.7 2.6 0.00 1.35 1.31 96 1013.9
20260510015103 66 247 0.9 2.6 0.00 1.35 1.31 96 1013.8
20260510015007 66 243 0.0 1.7 0.00 1.35 1.31 96 1013.8
20260510014903 66 239 0.0 1.7 0.00 1.35 1.31 96 1013.7
20260510014802 66 238 0.0 1.7 0.00 1.35 1.31 96 1013.7
20260510014702 66 226 0.0 1.7 0.00 1.35 1.31 96 1013.6
20260510014603 66 235 0.0 1.7 0.00 1.35 1.31 96 1013.6
20260510014505 66 235 0.0 1.7 0.00 1.35 1.31 96 1013.6
20260510014203 66 231 0.0 1.7 0.00 1.35 1.31 96 1013.5
20260510014103 66 227 0.0 2.6 0.00 1.35 1.31 96 1013.5
20260510014006 66 235 0.0 2.6 0.00 1.35 1.31 96 1013.5
20260510013902 66 235 0.0 2.6 0.00 1.35 1.31 96 1013.5
20260510013802 66 225 0.0 2.6 0.00 1.35 1.31 96 1013.5
20260510013703 66 228 0.0 2.6 0.00 1.35 1.31 96 1013.4
20260510013603 66 230 0.0 2.6 0.00 1.35 1.31 96 1013.4
20260510013505 66 232 0.0 2.6 0.00 1.35 1.31 96 1013.4
20260510013303 66 251 0.9 2.6 0.00 1.35 1.31 96 1013.4
20260510013203 66 263 1.7 1.7 0.00 1.35 1.31 96 1013.4
20260510012803 66 219 0.0 1.7 0.00 1.35 1.31 96 1013.2
20260510012703 66 214 0.0 2.6 0.00 1.35 1.31 95 1013.2
20260510012603 66 193 0.0 2.6 0.00 1.35 1.31 96 1013.2
20260510012505 66 204 0.0 2.6 0.00 1.35 1.31 96 1013.2
20260510012402 66 183 0.0 2.6 0.00 1.35 1.31 96 1013.1
20260510012306 66 222 0.0 2.6 0.00 1.35 1.31 96 1013.2
20260510012203 66 226 0.0 2.6 0.00 1.35 1.31 96 1013.2
20260510012102 66 216 0.0 2.6 0.00 1.35 1.31 96 1013.2
20260510011902 66 192 0.0 2.6 0.00 1.35 1.31 96 1013.2
20260510011802 66 150 0.9 2.6 0.00 1.35 1.31 96 1013.2
20260510011603 66 209 1.7 2.6 0.00 1.35 1.31 96 1013.3
20260510011506 66 222 1.7 2.6 0.00 1.35 1.31 96 1013.3
20260510011403 66 223 1.7 2.6 0.00 1.35 1.31 96 1013.2
20260510011203 66 227 0.0 1.7 0.00 1.35 1.31 96 1013.2
20260510011103 66 225 0.0 1.7 0.00 1.35 1.31 96 1013.2
20260510011006 66 225 0.0 1.7 0.00 1.35 1.31 96 1013.2
20260510010903 66 198 0.9 1.7 0.00 1.35 1.31 96 1013.2
20260510010803 66 216 0.0 1.7 0.00 1.35 1.31 96 1013.2
20260510010704 66 190 0.0 1.7 0.00 1.35 1.31 96 1013.2
20260510010505 66 164 0.0 1.7 0.00 1.35 1.31 95 1013.2
20260510010303 66 216 0.0 1.7 0.00 1.35 1.31 95 1013.2
20260510010203 66 216 0.0 1.7 0.00 1.35 1.31 95 1013.3
20260510010009 66 219 0.9 1.7 0.00 1.35 1.31 95 1013.3
20260510005903 66 221 0.0 2.6 0.00 1.35 1.31 95 1013.3
20260510005803 66 231 0.0 2.6 0.00 1.35 1.31 95 1013.3
20260510005703 66 236 0.0 2.6 0.00 1.35 1.31 95 1013.3
20260510005603 66 236 0.0 2.6 0.00 1.35 1.31 95 1013.2
20260510005506 66 236 0.0 2.6 0.00 1.35 1.31 95 1013.2
20260510005403 66 230 0.0 2.6 0.00 1.35 1.31 95 1013.1
20260510005306 66 230 0.0 2.6 0.00 1.35 1.31 95 1013.1
20260510005104 66 234 1.7 2.6 0.00 1.35 1.31 95 1013.1
20260510005006 66 246 1.7 2.6 0.00 1.35 1.31 95 1013.1
20260510004903 66 234 0.9 1.7 0.00 1.35 1.31 95 1013.0
20260510004803 66 224 1.7 1.7 0.00 1.35 1.31 95 1012.9
20260510004603 66 237 0.0 1.7 0.00 1.35 1.31 95 1012.9
20260510004506 66 237 0.0 1.7 0.00 1.35 1.31 95 1012.9
20260510004302 66 220 0.0 1.7 0.00 1.35 1.31 95 1012.8
20260510004102 66 209 0.0 1.7 0.00 1.35 1.31 95 1012.7
20260510003903 66 208 0.0 1.7 0.00 1.35 1.31 95 1012.7
20260510003803 66 214 0.0 1.7 0.00 1.35 1.31 95 1012.7
20260510003703 66 146 0.0 1.7 0.00 1.35 1.31 95 1012.7
20260510003603 66 146 0.0 1.7 0.00 1.35 1.31 95 1012.7
20260510003506 66 197 0.0 1.7 0.00 1.35 1.31 95 1012.7
20260510003403 66 173 0.0 1.7 0.00 1.35 1.31 95 1012.7
20260510003303 66 155 0.0 1.7 0.00 1.35 1.31 95 1012.7
20260510003203 66 191 1.7 1.7 0.00 1.35 1.31 95 1012.6
20260510003103 66 205 0.0 1.7 0.00 1.35 1.31 95 1012.7
20260510003006 66 205 0.0 1.7 0.00 1.35 1.31 95 1012.6
20260510002904 66 165 0.0 1.7 0.00 1.35 1.31 95 1012.7
20260510002803 66 174 0.0 1.7 0.00 1.35 1.31 95 1012.7
20260510002703 66 146 0.0 1.7 0.00 1.35 1.31 95 1012.7
20260510002403 66 155 0.0 1.7 0.00 1.35 1.31 95 1012.5
20260510002306 66 155 0.0 1.7 0.00 1.35 1.31 95 1012.5
20260510002203 66 155 0.0 1.7 0.00 1.35 1.31 95 1012.6
20260510002005 66 144 0.0 1.7 0.00 1.35 1.31 95 1012.6
20260510001903 66 160 0.0 1.7 0.00 1.35 1.31 95 1012.6
20260510001803 66 188 0.0 1.7 0.00 1.35 1.31 95 1012.6
20260510001703 66 183 0.0 1.7 0.00 1.35 1.31 95 1012.6
20260510001603 66 153 0.0 1.7 0.00 1.35 1.31 95 1012.6
20260510001506 66 153 0.0 1.7 0.00 1.35 1.31 95 1012.6
20260510001403 66 141 0.0 1.7 0.00 1.35 1.31 95 1012.5
20260510001303 66 134 1.7 1.7 0.00 1.35 1.31 95 1012.6
20260510001203 66 143 0.0 0.9 0.00 1.35 1.31 95 1012.6
20260510001006 66 130 0.0 0.0 0.00 1.35 1.31 95 1012.7
20260510000904 66 259 0.0 0.0 0.00 1.35 1.31 95 1012.8
20260510000703 66 259 0.0 0.0 0.00 1.35 1.31 95 1012.7
20260510000602 66 259 0.0 1.7 0.00 1.35 1.31 95 1012.7
20260510000505 66 259 0.0 1.7 0.00 1.35 1.31 95 1012.8
20260510000403 66 259 0.0 1.7 0.00 1.35 1.31 95 1012.7
20260510000304 66 259 0.0 1.7 0.00 1.35 1.31 95 1012.7
20260510000204 66 259 0.0 1.7 0.00 1.35 1.31 95 1012.7
20260510000103 66 129 0.0 1.7 0.00 1.35 1.31 95 1012.6
20260510000007 66 129 0.0 1.7 0.00 1.35 1.31 95 1012.6
20260509235903 66 129 0.0 1.7 0.00 1.35 1.31 94 1012.6
20260509235803 66 129 0.0 1.7 0.00 1.35 1.31 94 1012.6
20260509235703 67 139 0.9 1.7 0.00 1.35 1.31 94 1012.6
20260509235604 66 173 0.0 0.0 0.00 1.35 1.31 94 1012.6
20260509235506 66 136 0.0 0.0 0.00 1.35 1.31 94 1012.6
20260509235403 67 136 0.0 0.0 0.00 1.35 1.31 94 1012.6
20260509235306 67 136 0.0 0.0 0.00 1.35 1.31 94 1012.6
20260509235203 67 136 0.0 0.0 0.00 1.35 1.31 94 1012.5
20260509235103 67 136 0.0 0.0 0.00 1.35 1.31 94 1012.5
20260509235006 67 136 0.0 0.0 0.00 1.35 1.31 94 1012.5
20260509234902 67 136 0.0 0.0 0.00 1.35 1.31 94 1012.5
20260509234803 66 136 0.0 0.0 0.00 1.35 1.31 94 1012.5
20260509234703 66 136 0.0 0.0 0.00 1.35 1.31 94 1012.5
20260509234505 67 136 0.0 0.0 0.00 1.35 1.31 94 1012.4
20260509234304 67 136 0.0 0.0 0.00 1.35 1.31 94 1012.5
20260509234204 67 136 0.0 0.0 0.00 1.35 1.31 94 1012.5
20260509234006 67 136 0.0 0.0 0.00 1.35 1.31 94 1012.4
20260509233903 67 136 0.0 0.0 0.00 1.35 1.31 94 1012.4
20260509233702 67 136 0.0 1.7 0.00 1.35 1.31 94 1012.4
20260509233602 67 136 0.0 2.6 0.00 1.35 1.31 94 1012.4
20260509233506 67 136 0.0 2.6 0.00 1.35 1.31 94 1012.3
20260509233402 67 136 0.0 2.6 0.00 1.35 1.31 94 1012.5
20260509233303 67 136 0.0 2.6 0.00 1.35 1.31 94 1012.4
20260509233203 67 136 0.0 2.6 0.00 1.35 1.31 94 1012.4
20260509233103 67 136 0.0 2.6 0.00 1.35 1.31 94 1012.4
20260509233006 67 136 0.0 2.6 0.00 1.35 1.31 94 1012.4
20260509232903 67 188 0.0 2.6 0.00 1.35 1.31 94 1012.4
20260509232803 67 188 0.0 2.6 0.00 1.35 1.31 93 1012.4
20260509232603 67 144 1.7 1.7 0.00 1.35 1.31 93 1012.4
20260509232506 67 160 1.7 1.7 0.00 1.35 1.31 93 1012.4
20260509232403 67 203 0.0 1.7 0.00 1.35 1.31 93 1012.5
20260509232306 67 224 1.7 1.7 0.00 1.35 1.31 93 1012.5
20260509232203 67 210 0.0 2.6 0.00 1.35 1.31 93 1012.5
20260509232103 67 225 0.0 2.6 0.00 1.35 1.31 93 1012.5
20260509232007 67 213 0.0 2.6 0.00 1.35 1.31 93 1012.5
20260509231903 67 52 0.0 2.6 0.00 1.35 1.31 93 1012.5
20260509231802 67 173 0.0 2.6 0.00 1.35 1.31 93 1012.5
20260509231702 67 173 0.0 2.6 0.00 1.35 1.31 93 1012.5
20260509231506 67 171 0.9 2.6 0.00 1.35 1.31 93 1012.5
20260509231403 67 167 1.7 2.6 0.00 1.35 1.31 93 1012.6
20260509231302 67 160 1.7 2.6 0.00 1.35 1.31 93 1012.6
20260509231204 67 151 0.9 2.6 0.00 1.35 1.31 93 1012.6
20260509231103 67 188 0.9 2.6 0.00 1.35 1.31 93 1012.6
20260509231006 67 193 0.9 2.6 0.00 1.35 1.31 93 1012.7
20260509230902 67 225 0.0 2.6 0.00 1.35 1.31 93 1012.7
20260509230803 67 223 0.0 2.6 0.00 1.35 1.31 93 1012.6
20260509230703 67 195 0.0 2.6 0.00 1.35 1.31 93 1012.6
20260509230603 67 64 0.0 2.6 0.00 1.35 1.31 93 1012.7
20260509230505 67 146 0.0 2.6 0.00 1.35 1.31 93 1012.7
20260509230402 67 195 0.0 1.7 0.00 1.35 1.31 93 1012.7
20260509230303 67 195 0.0 1.7 0.00 1.35 1.31 93 1012.7
20260509230204 67 142 0.0 1.7 0.00 1.35 1.31 93 1012.7
20260509230103 67 239 0.0 1.7 0.00 1.35 1.31 93 1012.6
20260509225903 67 239 0.0 1.7 0.00 1.35 1.31 93 1012.7
20260509225802 67 236 0.0 1.7 0.00 1.35 1.31 92 1012.6
20260509225703 67 238 0.0 1.7 0.00 1.35 1.31 92 1012.6
20260509225603 67 235 0.0 1.7 0.00 1.35 1.31 92 1012.5
20260509225506 67 242 0.0 1.7 0.00 1.35 1.31 92 1012.5
20260509225403 67 169 0.0 1.7 0.00 1.35 1.31 92 1012.5
20260509225305 67 219 0.0 1.7 0.00 1.35 1.31 92 1012.5
20260509225203 67 219 0.0 1.7 0.00 1.35 1.31 92 1012.5
20260509225103 67 219 0.0 1.7 0.00 1.35 1.31 92 1012.5
20260509224903 67 219 0.0 1.7 0.00 1.35 1.31 92 1012.4
20260509224803 68 219 0.0 2.6 0.00 1.35 1.31 92 1012.4
20260509224703 67 219 0.0 2.6 0.00 1.35 1.31 92 1012.7
20260509224603 68 165 0.0 2.6 0.00 1.35 1.31 92 1012.3
20260509224506 68 142 0.0 2.6 0.00 1.35 1.31 92 1012.3
20260509224402 68 143 0.0 2.6 0.00 1.35 1.31 92 1012.3
20260509224303 67 142 0.0 2.6 0.00 1.35 1.31 92 1012.2
20260509224104 67 143 0.0 3.5 0.00 1.35 1.31 92 1012.2
20260509223703 67 144 0.9 3.5 0.00 1.35 1.31 92 1012.2
20260509223603 68 165 1.7 3.5 0.00 1.35 1.31 92 1012.2
20260509223403 67 129 0.0 3.5 0.00 1.35 1.31 92 1012.1
20260509223303 68 89 2.6 3.5 0.00 1.35 1.31 92 1012.1
20260509223202 68 146 0.0 3.5 0.00 1.35 1.31 92 1012.2
20260509223102 68 33 0.0 3.5 0.01 1.35 1.31 92 1012.1
20260509223007 68 150 0.0 3.5 0.01 1.35 1.31 92 1012.1
20260509222902 68 150 0.0 3.5 0.01 1.35 1.31 92 1012.0
20260509222803 68 356 0.9 3.5 0.01 1.35 1.31 92 1012.0
20260509222703 68 148 0.0 3.5 0.01 1.35 1.31 92 1012.0
20260509222603 68 146 1.7 3.5 0.01 1.35 1.31 92 1012.0
20260509222506 68 134 0.9 3.5 0.01 1.35 1.31 92 1012.0
20260509222403 68 160 0.9 3.5 0.01 1.35 1.31 92 1012.0
20260509222306 68 137 0.0 3.5 0.01 1.35 1.31 92 1011.9
20260509222202 68 81 2.6 3.5 0.01 1.35 1.31 92 1011.9
20260509222103 68 153 0.0 3.5 0.01 1.35 1.31 92 1011.9
20260509222006 68 118 0.0 3.5 0.01 1.35 1.31 92 1011.9
20260509221903 68 27 0.0 3.5 0.01 1.35 1.31 92 1011.9
20260509221803 68 203 0.0 3.5 0.01 1.35 1.31 92 1011.9
20260509221702 68 70 0.9 3.5 0.01 1.35 1.31 92 1011.9
20260509221603 68 105 0.0 3.5 0.01 1.35 1.31 92 1011.9
20260509221506 68 67 0.0 3.5 0.01 1.35 1.31 92 1011.9
20260509221302 68 72 2.6 3.5 0.01 1.35 1.31 92 1011.9
20260509221202 68 108 3.5 3.5 0.01 1.35 1.31 92 1011.9
20260509221006 68 129 0.0 2.6 0.01 1.35 1.31 92 1011.8
20260509220903 68 130 0.0 2.6 0.01 1.35 1.31 92 1011.9
20260509220803 68 221 0.0 2.6 0.01 1.35 1.31 92 1011.9
20260509220704 68 107 0.0 2.6 0.01 1.35 1.31 93 1011.9
20260509220604 68 34 0.0 2.6 0.01 1.35 1.31 93 1011.9
20260509220505 68 333 0.0 2.6 0.01 1.35 1.31 93 1011.9
20260509220402 67 123 0.0 2.6 0.01 1.35 1.31 93 1011.8
20260509220302 68 115 0.0 2.6 0.01 1.35 1.31 93 1011.7
20260509220104 68 146 0.9 2.6 0.01 1.35 1.31 93 1011.8
20260509220008 68 139 0.0 2.6 0.01 1.35 1.31 93 1011.8
20260509215903 68 195 0.0 2.6 0.01 1.44 1.31 93 1011.8
20260509215803 67 160 0.0 2.6 0.01 1.44 1.31 93 1011.8
20260509215702 67 137 1.7 2.6 0.01 1.44 1.31 93 1011.8
20260509215603 67 311 0.0 2.6 0.01 1.44 1.31 93 1011.8
20260509215505 67 136 0.0 2.6 0.01 1.44 1.31 93 1011.8
20260509215403 67 32 0.0 1.7 0.01 1.44 1.31 93 1011.8
20260509215203 67 69 0.0 1.7 0.01 1.44 1.31 93 1011.9
20260509214902 67 206 0.0 0.9 0.01 1.44 1.31 93 1012.0
20260509214803 67 206 0.0 2.6 0.01 1.44 1.31 93 1012.0
20260509214603 67 146 0.0 2.6 0.01 1.44 1.31 93 1012.0
20260509214506 67 233 0.0 2.6 0.01 1.44 1.31 94 1012.0
20260509214403 67 233 0.0 3.5 0.01 1.44 1.31 94 1012.0
20260509214302 67 233 0.0 3.5 0.01 1.44 1.31 94 1011.9
20260509214204 67 233 0.0 3.5 0.01 1.44 1.31 94 1011.9
20260509214104 67 319 0.0 3.5 0.01 1.44 1.31 94 1012.0
20260509214006 67 319 0.0 3.5 0.01 1.44 1.31 94 1012.0
20260509213903 67 314 0.0 3.5 0.01 1.44 1.31 94 1011.9
20260509213804 67 302 1.7 3.5 0.01 1.44 1.31 94 1011.9
20260509213703 67 304 0.9 3.5 0.01 1.44 1.31 94 1011.9
20260509213604 67 312 1.7 3.5 0.01 1.44 1.31 94 1011.8
20260509213402 67 314 1.7 3.5 0.01 1.44 1.31 94 1011.9
20260509213303 67 342 2.6 3.5 0.01 1.44 1.31 94 1011.9
20260509213203 67 314 2.6 3.5 0.01 1.44 1.31 94 1011.8
20260509213006 67 314 1.7 2.6 0.00 1.43 1.30 94 1011.8
20260509212803 67 304 0.0 2.6 0.00 1.43 1.30 94 1011.6
20260509212602 67 319 1.7 2.6 0.00 1.43 1.30 95 1011.6
20260509212505 67 293 0.0 2.6 0.00 1.43 1.30 95 1011.6
20260509212403 67 333 0.9 2.6 0.00 1.43 1.30 95 1011.6
20260509212203 67 333 0.0 2.6 0.00 1.43 1.30 95 1011.7
20260509212006 67 255 1.7 2.6 0.00 1.43 1.30 95 1011.7
20260509211903 67 304 0.0 2.6 0.00 1.43 1.30 95 1011.7
20260509211603 67 272 0.0 2.6 0.00 1.43 1.30 95 1011.6
20260509211506 67 294 0.0 2.6 0.00 1.43 1.30 95 1011.6
20260509211404 67 295 1.7 2.6 0.00 1.43 1.30 95 1011.6
20260509211303 67 265 0.0 2.6 0.00 1.43 1.30 95 1011.5
20260509211204 67 288 0.9 2.6 0.00 1.43 1.30 95 1011.6
20260509211103 67 263 2.6 2.6 0.00 1.43 1.30 95 1011.5
20260509211007 67 302 1.7 2.6 0.00 1.43 1.30 95 1011.5
20260509210903 67 295 1.7 2.6 0.00 1.43 1.30 95 1011.5
20260509210803 67 282 0.0 3.5 0.00 1.43 1.30 95 1011.5
20260509210703 67 301 1.7 3.5 0.00 1.43 1.30 95 1011.5
20260509210203 66 307 1.7 3.5 0.00 1.43 1.30 95 1011.5
20260509210103 66 303 0.0 3.5 0.00 1.43 1.30 95 1011.4
20260509210007 66 277 0.0 3.5 0.00 1.43 1.30 95 1011.4
20260509205903 66 272 1.7 3.5 0.00 1.54 1.30 95 1011.3
20260509205802 66 291 0.0 3.5 0.00 1.54 1.30 95 1011.3
20260509205703 66 173 0.0 3.5 0.00 1.54 1.30 95 1011.4
20260509205602 67 53 0.0 3.5 0.00 1.54 1.30 95 1011.3
20260509205506 66 53 0.0 3.5 0.00 1.54 1.30 95 1011.3
20260509205404 66 254 1.7 3.5 0.00 1.54 1.30 95 1011.2
20260509205306 66 235 0.0 3.5 0.00 1.54 1.30 95 1011.1
20260509205203 66 227 0.0 3.5 0.00 1.54 1.30 95 1011.2
20260509205103 66 186 0.9 4.3 0.00 1.54 1.30 95 1011.2
20260509205007 66 141 0.9 4.3 0.00 1.54 1.30 95 1011.1
20260509204903 66 202 0.0 4.3 0.00 1.54 1.30 95 1011.1
20260509204802 66 203 0.0 4.3 0.00 1.54 1.30 95 1011.0
20260509204703 66 203 0.0 4.3 0.00 1.54 1.30 95 1011.0
20260509204603 66 247 2.6 4.3 0.00 1.54 1.30 95 1011.0
20260509204506 66 115 0.0 4.3 0.00 1.54 1.30 95 1011.0
20260509204403 66 118 2.6 4.3 0.00 1.54 1.30 95 1011.0
20260509204303 66 143 3.5 4.3 0.00 1.54 1.30 95 1011.0
20260509204103 66 164 1.7 4.3 0.00 1.54 1.30 95 1011.0
20260509204007 66 153 1.7 4.3 0.00 1.54 1.30 95 1011.0
20260509203904 66 165 1.7 4.3 0.00 1.54 1.30 95 1011.1
20260509203803 66 236 0.0 4.3 0.00 1.54 1.30 95 1011.0
20260509203703 66 176 0.0 4.3 0.00 1.54 1.30 95 1011.0
20260509203604 66 230 0.0 4.3 0.00 1.54 1.30 95 1011.0
20260509203506 66 232 0.0 3.5 0.00 1.54 1.30 95 1010.9
20260509203402 66 184 0.9 3.5 0.00 1.54 1.30 95 1010.9
20260509203304 66 158 0.0 3.5 0.00 1.54 1.30 95 1010.9
20260509203204 66 194 0.0 3.5 0.00 1.54 1.30 95 1010.8
20260509203102 66 181 0.9 3.5 0.00 1.54 1.30 96 1010.8
20260509203007 66 264 0.0 3.5 0.00 1.54 1.30 96 1010.8
20260509202904 66 213 0.0 3.5 0.00 1.54 1.30 96 1010.7
20260509202803 66 124 0.9 3.5 0.00 1.54 1.30 96 1010.7
20260509202703 66 184 1.7 3.5 0.00 1.54 1.30 96 1010.7
20260509202602 66 94 0.0 3.5 0.00 1.54 1.30 96 1010.8
20260509202505 66 210 0.0 3.5 0.00 1.54 1.30 96 1010.8
20260509202405 66 141 0.0 3.5 0.00 1.54 1.30 96 1010.8
20260509202306 66 114 0.0 3.5 0.00 1.54 1.30 96 1010.9
20260509202202 66 43 0.0 3.5 0.00 1.54 1.30 96 1011.0
20260509202102 66 124 2.6 3.5 0.00 1.54 1.30 96 1010.9
20260509202007 66 160 0.0 3.5 0.00 1.54 1.30 96 1010.9
20260509201902 66 206 0.0 3.5 0.00 1.54 1.30 96 1011.1
20260509201702 66 206 0.0 3.5 0.00 1.54 1.30 96 1011.0
20260509201602 66 283 0.0 3.5 0.00 1.54 1.30 96 1011.1
20260509201506 66 282 0.0 3.5 0.00 1.54 1.30 96 1011.1
20260509201403 66 132 1.7 3.5 0.00 1.54 1.30 96 1011.0
20260509201303 66 158 0.0 4.3 0.00 1.54 1.30 96 1011.0
20260509201203 66 146 0.9 4.3 0.00 1.54 1.30 96 1011.0
20260509201006 66 167 0.0 4.3 0.00 1.54 1.30 96 1011.1
20260509200903 65 218 0.0 4.3 0.00 1.54 1.30 96 1011.1
20260509200802 66 99 2.6 5.2 0.00 1.54 1.30 96 1011.2
20260509200703 66 64 0.9 5.2 0.00 1.54 1.30 96 1011.1
20260509200604 65 237 0.0 5.2 0.00 1.54 1.30 96 1011.2
20260509200509 66 212 0.0 5.2 0.00 1.54 1.30 96 1011.2
20260509200302 65 169 3.5 5.2 0.00 1.54 1.30 96 1011.3
20260509200202 65 84 0.0 5.2 0.00 1.54 1.30 96 1011.3
20260509200104 65 165 2.6 5.2 0.00 1.54 1.30 96 1011.4
20260509200006 65 54 2.6 5.2 0.00 1.54 1.30 96 1011.4
20260509195803 65 181 2.6 4.3 0.00 1.56 1.30 96 1011.5
20260509195603 65 144 1.7 5.2 0.00 1.56 1.30 96 1011.6
20260509195506 66 134 2.6 5.2 0.00 1.56 1.30 96 1011.6
20260509195403 66 115 2.6 5.2 0.00 1.56 1.30 96 1011.6
20260509195202 66 139 0.9 5.2 0.00 1.56 1.30 96 1011.8
20260509195103 66 139 2.6 5.2 0.00 1.56 1.30 96 1011.9
20260509195008 66 127 0.9 5.2 0.00 1.56 1.30 96 1011.9
20260509194903 66 129 1.7 5.2 0.00 1.56 1.30 96 1012.0
20260509194803 66 131 4.3 5.2 0.00 1.56 1.30 96 1012.1
20260509194703 66 142 2.6 3.5 0.00 1.56 1.30 96 1012.2
20260509194602 66 131 0.0 3.5 0.00 1.56 1.30 96 1012.2
20260509194506 65 143 0.0 3.5 0.00 1.56 1.30 96 1012.2
20260509194404 66 158 0.9 3.5 0.00 1.56 1.30 96 1012.2
20260509194303 65 188 0.0 3.5 0.00 1.56 1.30 96 1012.3
20260509194203 65 30 0.0 3.5 0.00 1.56 1.30 96 1012.2
20260509194101 65 142 0.0 3.5 0.00 1.56 1.30 96 1012.3
20260509194006 66 108 0.0 3.5 0.00 1.56 1.30 96 1012.3
20260509193903 65 139 1.7 3.5 0.00 1.56 1.30 96 1012.3
20260509193803 65 142 0.9 3.5 0.00 1.56 1.30 96 1012.2
20260509193703 65 139 0.0 3.5 0.00 1.56 1.30 96 1012.4
20260509193505 65 148 1.7 3.5 0.00 1.56 1.30 96 1012.4
20260509193403 65 221 0.0 3.5 0.00 1.56 1.30 96 1012.4
20260509193303 66 124 0.0 3.5 0.00 1.56 1.30 96 1012.3
20260509193204 66 141 0.9 4.3 0.00 1.56 1.30 96 1012.2
20260509193103 66 150 0.0 4.3 0.00 1.56 1.30 96 1012.3
20260509193006 66 192 1.7 4.3 0.00 1.56 1.30 96 1012.2
20260509192903 66 144 0.0 4.3 0.00 1.56 1.30 96 1012.3
20260509192802 66 176 0.0 4.3 0.00 1.56 1.30 96 1012.3
20260509192702 66 360 2.6 4.3 0.00 1.56 1.30 96 1012.3
20260509192603 66 304 0.0 4.3 0.00 1.56 1.30 96 1012.3
20260509192305 66 118 3.5 4.3 0.00 1.56 1.30 96 1012.3
20260509192202 65 155 0.0 4.3 0.00 1.56 1.30 96 1012.2
20260509192104 65 68 2.6 4.3 0.00 1.56 1.30 96 1012.2
20260509192006 65 129 1.7 4.3 0.00 1.56 1.30 96 1012.3
20260509191904 65 77 1.7 4.3 0.00 1.56 1.30 96 1012.2
20260509191703 66 113 0.0 4.3 0.00 1.56 1.30 97 1012.3
20260509191603 66 155 0.0 4.3 0.00 1.56 1.30 97 1012.4
20260509191506 66 201 1.7 4.3 0.00 1.56 1.30 96 1012.4
20260509191404 65 323 0.0 4.3 0.00 1.56 1.30 97 1012.3
20260509191302 65 143 0.9 5.2 0.00 1.56 1.30 97 1012.4
20260509191204 65 105 0.0 5.2 0.00 1.56 1.30 97 1012.4
20260509191103 65 85 0.0 5.2 0.00 1.56 1.30 97 1012.3
20260509191006 65 143 3.5 5.2 0.00 1.56 1.30 97 1012.3
20260509190802 65 89 1.7 5.2 0.00 1.56 1.30 97 1012.5
20260509190703 65 125 1.7 5.2 0.00 1.56 1.30 97 1012.6
20260509190604 65 6 0.0 5.2 0.00 1.56 1.30 96 1012.6
20260509190505 66 130 2.6 5.2 0.00 1.56 1.30 97 1012.6
20260509190404 66 319 0.9 5.2 0.00 1.56 1.30 97 1012.6
20260509190303 66 188 1.7 4.3 0.00 1.56 1.30 97 1012.7
20260509190008 65 134 2.6 4.3 0.00 1.56 1.30 97 1012.8
20260509185902 65 70 2.6 4.3 0.00 1.56 1.30 97 1012.8
20260509185702 65 203 2.6 4.3 0.00 1.56 1.30 97 1012.9
20260509185604 65 135 3.5 4.3 0.00 1.56 1.30 97 1012.8
20260509185506 66 114 0.9 4.3 0.00 1.56 1.30 97 1012.8
20260509185404 66 181 0.9 4.3 0.01 1.56 1.30 97 1012.6
20260509185306 66 186 1.7 4.3 0.01 1.56 1.30 97 1012.5
20260509185203 66 220 1.7 4.3 0.01 1.56 1.30 97 1012.5
20260509185103 65 65 2.6 4.3 0.01 1.56 1.30 97 1012.5
20260509185007 65 192 1.7 4.3 0.01 1.56 1.30 97 1012.5
20260509184902 65 106 0.9 3.5 0.01 1.56 1.30 97 1012.5
20260509184803 65 124 0.0 3.5 0.01 1.56 1.30 97 1012.6
20260509184702 66 47 1.7 4.3 0.01 1.56 1.30 97 1012.6
20260509184506 66 137 0.0 4.3 0.01 1.56 1.30 97 1012.7
20260509184403 65 160 1.7 4.3 0.01 1.56 1.30 97 1012.8
20260509184303 65 181 0.9 4.3 0.01 1.56 1.30 97 1012.8
20260509184203 65 162 2.6 4.3 0.02 1.56 1.30 96 1013.0
20260509184103 65 243 1.7 4.3 0.02 1.56 1.30 97 1013.1
20260509184007 65 185 2.6 4.3 0.02 1.56 1.30 97 1013.1
20260509183804 65 203 1.7 4.3 0.03 1.56 1.30 96 1013.1
20260509183702 65 169 2.6 4.3 0.03 1.56 1.30 97 1013.1
20260509183507 65 194 2.6 5.2 0.03 1.56 1.30 97 1013.0
20260509183303 65 225 0.0 5.2 0.03 1.56 1.30 97 1013.1
20260509183102 65 169 0.0 5.2 0.03 1.56 1.30 96 1013.0
20260509183007 65 293 0.0 5.2 0.03 1.56 1.30 96 1013.0
20260509182902 64 204 0.0 5.2 0.03 1.56 1.30 96 1013.0
20260509182704 65 186 0.9 5.2 0.03 1.56 1.30 96 1013.1
20260509182603 65 179 3.5 5.2 0.04 1.56 1.30 97 1013.2
20260509182506 65 233 0.0 5.2 0.04 1.56 1.30 97 1013.3
20260509182403 65 143 3.5 5.2 0.05 1.56 1.30 97 1013.3
20260509182306 65 219 1.7 5.2 0.05 1.56 1.30 97 1013.3
20260509182203 65 203 2.6 5.2 0.05 1.56 1.30 96 1013.3
20260509182103 65 198 2.6 5.2 0.05 1.56 1.30 97 1013.4
20260509182006 65 155 3.5 5.2 0.05 1.56 1.30 97 1013.5
20260509181903 65 139 2.6 5.2 0.05 1.56 1.30 97 1013.5
20260509181802 65 208 1.7 5.2 0.05 1.56 1.30 96 1013.5
20260509181703 65 105 2.6 5.2 0.05 1.56 1.30 96 1013.4
20260509181603 65 211 1.7 5.2 0.05 1.56 1.30 96 1013.3
20260509181506 65 155 3.5 5.2 0.05 1.56 1.30 96 1013.4
20260509181402 65 150 3.5 6.1 0.05 1.56 1.30 97 1013.3
20260509181203 65 184 1.7 6.1 0.05 1.56 1.30 97 1013.5
20260509181103 65 203 0.9 6.1 0.05 1.56 1.30 97 1013.5
20260509181006 65 167 1.7 6.1 0.05 1.56 1.30 97 1013.4
20260509180903 65 153 0.0 6.1 0.05 1.56 1.30 97 1013.5
20260509180803 65 107 1.7 6.1 0.05 1.56 1.30 97 1013.6
20260509180603 65 167 0.0 6.1 0.06 1.56 1.30 97 1013.6
20260509180403 65 172 2.6 6.1 0.06 1.56 1.30 97 1013.5
20260509180204 65 201 2.6 6.1 0.06 1.56 1.30 97 1013.4
20260509180104 65 202 1.7 6.1 0.06 1.56 1.30 97 1013.4
20260509180007 65 151 3.5 6.1 0.06 1.56 1.30 97 1013.4
20260509175904 65 153 1.7 6.1 0.06 1.56 1.30 97 1013.2
20260509175804 65 146 1.7 6.1 0.06 1.56 1.30 97 1013.2
20260509175703 65 150 3.5 6.1 0.07 1.56 1.30 97 1013.2
20260509175603 65 167 3.5 6.1 0.07 1.56 1.30 97 1013.2
20260509175403 65 155 3.5 6.1 0.07 1.55 1.29 97 1013.2
20260509175306 65 142 5.2 6.1 0.07 1.55 1.29 97 1013.3
20260509175202 65 150 3.5 5.2 0.07 1.55 1.29 97 1013.3
20260509175103 65 150 3.5 5.2 0.07 1.55 1.29 97 1013.5
20260509175006 65 157 4.3 5.2 0.07 1.55 1.29 97 1013.5
20260509174903 65 141 2.6 5.2 0.08 1.55 1.29 97 1013.5
20260509174802 65 155 1.7 5.2 0.08 1.55 1.29 97 1013.6
20260509174703 65 191 1.7 5.2 0.08 1.55 1.29 97 1013.7
20260509174603 65 164 2.6 5.2 0.08 1.55 1.29 97 1013.8
20260509174505 65 188 3.5 5.2 0.08 1.55 1.29 97 1013.8
20260509174403 65 158 2.6 4.3 0.08 1.55 1.29 97 1013.8
20260509174303 65 150 3.5 4.3 0.08 1.55 1.29 97 1014.0
20260509174202 65 162 1.7 4.3 0.08 1.54 1.28 97 1013.9
20260509173902 65 179 0.0 3.5 0.07 1.53 1.27 97 1014.1
20260509173803 65 186 2.6 3.5 0.07 1.53 1.27 97 1014.1
20260509173702 65 166 0.0 3.5 0.07 1.53 1.27 97 1014.1
20260509173603 65 195 0.9 3.5 0.08 1.53 1.27 97 1014.0
20260509173506 65 181 1.7 3.5 0.08 1.53 1.27 97 1014.1
20260509173401 65 155 2.6 3.5 0.08 1.53 1.27 97 1014.0
20260509173304 65 174 1.7 3.5 0.09 1.53 1.27 97 1014.0
20260509173202 65 164 1.7 3.5 0.09 1.53 1.27 97 1014.0
20260509173103 65 172 1.7 3.5 0.10 1.53 1.27 96 1013.9
20260509173006 65 191 2.6 3.5 0.10 1.53 1.27 96 1013.9
20260509172804 64 158 1.7 3.5 0.10 1.53 1.27 96 1013.8
20260509172702 64 162 2.6 3.5 0.11 1.52 1.26 96 1014.0
20260509172604 64 158 2.6 4.3 0.11 1.52 1.26 96 1013.9
20260509172403 64 176 1.7 4.3 0.13 1.51 1.25 96 1013.9
20260509172203 64 125 1.7 4.3 0.15 1.51 1.25 96 1014.1
20260509172104 64 179 2.6 4.3 0.15 1.51 1.25 96 1014.1
20260509172006 64 188 1.7 4.3 0.15 1.51 1.25 96 1014.1
20260509171902 64 199 2.6 4.3 0.16 1.51 1.25 96 1013.9
20260509171804 64 165 2.6 4.3 0.16 1.51 1.25 96 1013.9
20260509171603 64 186 2.6 4.3 0.19 1.51 1.25 97 1014.0
20260509171506 64 166 1.7 3.5 0.19 1.51 1.25 96 1014.0
20260509171402 64 181 2.6 3.5 0.20 1.51 1.25 97 1014.0
20260509171303 64 160 2.6 3.5 0.21 1.51 1.25 96 1013.9
20260509171204 64 160 2.6 3.5 0.21 1.51 1.25 96 1014.0
20260509171103 64 155 2.6 3.5 0.21 1.51 1.25 96 1014.0
20260509171007 64 157 2.6 3.5 0.21 1.51 1.25 96 1014.0
20260509170903 64 155 2.6 3.5 0.22 1.51 1.25 96 1014.0
20260509170803 64 144 2.6 3.5 0.23 1.51 1.25 96 1014.0
20260509170702 64 153 2.6 3.5 0.24 1.51 1.25 97 1014.1
20260509170603 64 155 1.7 3.5 0.23 1.50 1.24 97 1014.2
20260509170505 64 178 2.6 3.5 0.23 1.50 1.24 96 1014.2
20260509170303 64 169 1.7 2.6 0.25 1.50 1.24 96 1014.1
20260509170203 64 212 0.9 2.6 0.25 1.50 1.24 96 1014.1
20260509170008 64 194 1.7 2.6 0.28 1.50 1.24 97 1014.0
20260509165903 64 234 1.7 1.7 0.31 1.50 1.24 97 1013.9
20260509165702 64 260 0.0 2.6 0.34 1.49 1.23 97 1013.9
20260509165505 64 335 0.0 2.6 0.35 1.49 1.23 97 1013.9
20260509165403 64 335 0.0 2.6 0.35 1.48 1.22 96 1013.9
20260509165306 64 335 0.0 2.6 0.35 1.48 1.22 97 1014.0
20260509165203 64 335 0.0 2.6 0.36 1.48 1.22 97 1013.9
20260509165103 64 335 0.0 2.6 0.36 1.48 1.22 97 1013.9
20260509164902 64 228 0.9 2.6 0.36 1.47 1.21 97 1014.0
20260509164804 64 221 0.0 2.6 0.36 1.47 1.21 97 1014.0
20260509164702 64 225 0.0 2.6 0.37 1.47 1.21 96 1014.0
20260509164603 64 255 0.0 2.6 0.37 1.47 1.21 96 1014.0
20260509164403 64 220 0.0 1.7 0.38 1.47 1.21 96 1013.8
20260509164302 64 220 0.0 1.7 0.38 1.47 1.21 96 1013.9
20260509164204 64 238 0.0 1.7 0.37 1.46 1.20 96 1013.8
20260509164102 64 233 0.0 2.6 0.37 1.46 1.20 96 1013.9
20260509164006 64 302 0.0 2.6 0.37 1.46 1.20 96 1013.9
20260509163902 64 302 0.0 2.6 0.38 1.46 1.20 97 1014.1
20260509163803 64 260 0.0 2.6 0.39 1.46 1.20 96 1014.1
20260509163703 64 254 0.0 2.6 0.39 1.46 1.20 96 1014.1
20260509163603 64 281 0.0 2.6 0.39 1.45 1.19 96 1014.1
20260509163403 64 321 0.0 2.6 0.40 1.44 1.18 96 1014.2
20260509163304 64 302 0.0 2.6 0.40 1.44 1.18 96 1014.2
20260509163204 64 277 2.6 2.6 0.42 1.44 1.18 96 1014.2
20260509163103 64 268 1.7 2.6 0.42 1.43 1.17 96 1014.2
20260509163007 64 250 1.7 2.6 0.42 1.43 1.17 96 1014.2
20260509162902 64 167 0.0 2.6 0.43 1.43 1.17 97 1014.2
20260509162603 64 235 0.0 2.6 0.43 1.41 1.15 96 1014.2
20260509162505 64 235 0.0 2.6 0.42 1.39 1.13 96 1014.3
20260509162403 64 235 0.0 2.6 0.42 1.38 1.12 96 1014.3
20260509162306 64 267 0.0 2.6 0.42 1.37 1.11 96 1014.3
20260509162202 64 287 2.6 2.6 0.41 1.36 1.10 96 1014.4
20260509162101 64 302 2.6 2.6 0.41 1.36 1.10 96 1014.4
20260509162006 64 295 0.0 2.6 0.40 1.35 1.09 96 1014.4
20260509161903 64 153 0.0 3.5 0.40 1.35 1.09 96 1014.5
20260509161803 64 10 0.0 3.5 0.40 1.34 1.08 96 1014.5
20260509161702 64 274 1.7 4.3 0.39 1.33 1.07 96 1014.5
20260509161603 64 227 1.7 4.3 0.39 1.32 1.06 96 1014.5
20260509161506 64 249 1.7 4.3 0.38 1.31 1.05 96 1014.5
20260509161303 63 125 0.0 4.3 0.38 1.30 1.04 96 1014.6
20260509161203 63 181 0.0 4.3 0.38 1.30 1.04 96 1014.6
20260509161103 63 194 1.7 4.3 0.38 1.30 1.04 96 1014.8
20260509161006 63 207 1.7 4.3 0.37 1.29 1.03 96 1014.8
20260509160902 64 221 3.5 5.2 0.38 1.29 1.03 96 1014.8
20260509160803 64 226 4.3 5.2 0.38 1.28 1.02 96 1014.8
20260509160703 64 238 3.5 5.2 0.38 1.27 1.01 96 1014.8
20260509160603 64 227 0.0 5.2 0.39 1.27 1.01 96 1014.8
20260509160506 64 185 1.7 5.2 0.38 1.26 1.00 96 1014.8
20260509160403 64 219 1.7 5.2 0.41 1.26 1.00 96 1014.7
20260509160203 64 204 0.0 5.2 0.42 1.24 0.98 96 1014.7
20260509160104 64 309 0.0 5.2 0.40 1.22 0.96 96 1014.8
20260509155902 64 285 0.9 4.3 0.39 1.19 0.93 96 1015.5
20260509155801 64 248 2.6 4.3 0.37 1.17 0.91 97 1015.6
20260509155602 64 224 1.7 4.3 0.35 1.14 0.88 96 1015.5
20260509155505 64 232 2.6 4.3 0.34 1.13 0.87 96 1015.5
20260509155401 64 221 1.7 4.3 0.34 1.13 0.87 96 1015.2
20260509155305 64 229 2.6 4.3 0.34 1.13 0.87 96 1014.9
20260509155201 64 235 1.7 4.3 0.34 1.12 0.86 96 1014.7
20260509155102 64 223 3.5 4.3 0.34 1.12 0.86 96 1014.5
20260509155006 64 230 3.5 3.5 0.34 1.11 0.85 96 1014.4
20260509154902 64 221 2.6 3.5 0.34 1.11 0.85 96 1014.2
20260509154803 64 221 2.6 3.5 0.34 1.10 0.84 96 1014.1
20260509154701 64 215 0.9 3.5 0.35 1.10 0.84 96 1014.0
20260509154602 64 186 1.7 3.5 0.36 1.10 0.84 96 1014.0
20260509154506 64 181 1.7 3.5 0.37 1.10 0.84 96 1013.9
20260509154402 64 176 1.7 3.5 0.37 1.09 0.83 96 1013.9
20260509154302 64 167 1.7 2.6 0.37 1.09 0.83 96 1013.9
20260509154201 64 197 1.7 2.6 0.37 1.09 0.83 96 1013.9
20260509154102 64 203 1.7 2.6 0.36 1.08 0.82 96 1014.0
20260509153901 64 194 2.6 2.6 0.37 1.08 0.82 96 1014.0
20260509153801 64 188 2.6 2.6 0.36 1.07 0.81 96 1014.1
20260509153402 63 236 0.9 3.5 0.34 1.04 0.78 96 1014.0
20260509153302 63 243 1.7 3.5 0.34 1.03 0.77 96 1014.0
20260509153203 63 176 0.0 3.5 0.33 1.02 0.76 96 1014.0
20260509153102 63 237 0.0 3.5 0.32 1.01 0.75 96 1014.0
20260509153009 63 218 1.7 3.5 0.32 1.01 0.75 96 1014.0
20260509152902 63 209 1.7 3.5 0.32 1.00 0.74 96 1014.2
20260509152801 63 190 1.7 3.5 0.32 1.00 0.74 96 1014.1
20260509152702 63 201 2.6 3.5 0.31 0.99 0.73 96 1014.1
20260509152602 63 209 2.6 4.3 0.31 0.98 0.72 96 1014.0
20260509152506 63 214 2.6 4.3 0.30 0.97 0.71 96 1014.0
20260509152402 63 228 3.5 4.3 0.30 0.96 0.70 96 1013.9
20260509152305 63 228 3.5 4.3 0.29 0.95 0.69 96 1013.9
20260509152202 64 224 3.5 4.3 0.29 0.95 0.69 96 1013.8
20260509152102 64 192 2.6 4.3 0.29 0.95 0.69 96 1013.8
20260509152006 64 238 1.7 4.3 0.29 0.95 0.69 96 1013.8
20260509151802 64 213 0.0 4.3 0.28 0.94 0.68 96 1013.8
20260509151702 64 173 3.5 4.3 0.28 0.94 0.68 96 1013.8
20260509151602 64 202 0.0 4.3 0.28 0.93 0.67 96 1013.8
20260509151506 63 221 0.0 4.3 0.28 0.93 0.67 96 1013.8
20260509151402 63 153 0.0 4.3 0.28 0.93 0.67 96 1013.9
20260509151301 63 153 0.0 4.3 0.27 0.92 0.66 96 1013.8
20260509151202 63 174 2.6 4.3 0.27 0.92 0.66 96 1014.0
20260509151102 63 174 1.7 4.3 0.27 0.92 0.66 96 1014.0
20260509150901 63 193 2.6 4.3 0.27 0.91 0.65 96 1014.1
20260509150801 63 165 3.5 4.3 0.26 0.90 0.64 96 1014.1
20260509150702 63 204 2.6 4.3 0.25 0.89 0.63 96 1014.0
20260509150505 64 209 1.7 3.5 0.23 0.87 0.61 96 1014.1
20260509150401 64 207 0.9 3.5 0.21 0.85 0.59 96 1014.0
20260509150301 64 190 1.7 3.5 0.20 0.84 0.58 96 1014.0
20260509150202 64 237 1.7 3.5 0.18 0.82 0.56 96 1013.8
20260509145901 64 198 0.9 3.5 0.16 0.80 0.54 96 1013.9
20260509145802 64 226 1.7 3.5 0.16 0.80 0.54 96 1013.9
20260509145702 64 210 2.6 3.5 0.15 0.79 0.53 96 1014.0
20260509145601 64 222 1.7 3.5 0.15 0.79 0.53 96 1013.9
20260509145505 64 213 2.6 3.5 0.15 0.79 0.53 96 1013.9
20260509145202 64 242 1.7 3.5 0.15 0.78 0.52 96 1013.6
20260509145102 64 233 1.7 3.5 0.15 0.78 0.52 96 1013.4
20260509145006 64 211 1.7 3.5 0.14 0.77 0.51 96 1013.4
20260509144902 64 201 1.7 3.5 0.15 0.77 0.51 96 1013.4
20260509144801 64 191 0.9 3.5 0.14 0.76 0.50 96 1013.5
20260509144701 64 153 0.9 3.5 0.13 0.75 0.49 96 1013.6
20260509144602 64 148 0.0 3.5 0.12 0.74 0.48 96 1013.6
20260509144506 64 186 2.6 4.3 0.11 0.73 0.47 96 1013.6
20260509144402 64 191 1.7 4.3 0.10 0.72 0.46 96 1013.9
20260509144201 64 194 2.6 4.3 0.11 0.72 0.46 97 1014.1
20260509144101 64 210 1.7 4.3 0.11 0.72 0.46 97 1014.1
20260509144005 64 203 1.7 4.3 0.11 0.72 0.46 97 1014.1
20260509143902 64 218 1.7 4.3 0.10 0.71 0.45 97 1014.0
20260509143802 64 210 3.5 4.3 0.10 0.71 0.45 96 1013.9
20260509143701 64 215 1.7 4.3 0.10 0.71 0.45 96 1013.9
20260509143602 64 195 4.3 4.3 0.10 0.71 0.45 97 1013.8
20260509143505 64 188 2.6 4.3 0.09 0.70 0.44 97 1013.8
20260509143401 64 200 2.6 4.3 0.10 0.70 0.44 96 1013.8
20260509143301 64 202 2.6 4.3 0.09 0.69 0.43 96 1013.7
20260509143201 64 197 2.6 4.3 0.09 0.69 0.43 96 1013.6
20260509143103 64 176 2.6 4.3 0.09 0.69 0.43 96 1013.7
20260509143006 64 157 3.5 4.3 0.08 0.68 0.42 96 1013.7
20260509142902 64 181 2.6 4.3 0.10 0.68 0.42 96 1013.7
20260509142802 64 211 3.5 4.3 0.13 0.68 0.42 96 1013.6
20260509142701 64 169 2.6 3.5 0.16 0.68 0.42 96 1013.7
20260509142601 64 176 2.6 3.5 0.20 0.67 0.41 96 1013.6
20260509142506 64 195 0.9 3.5 0.20 0.67 0.41 96 1013.6
20260509142301 64 219 1.7 3.5 0.20 0.66 0.40 96 1013.7
20260509142201 64 210 2.6 3.5 0.21 0.66 0.40 96 1013.5
20260509142101 64 228 1.7 3.5 0.22 0.66 0.40 96 1013.5
20260509142006 64 181 2.6 3.5 0.22 0.66 0.40 96 1013.5
20260509141702 64 202 1.7 3.5 0.27 0.66 0.40 96 1013.6
20260509141601 64 215 0.0 3.5 0.29 0.65 0.39 96 1013.6
20260509141505 64 186 1.7 4.3 0.32 0.65 0.39 96 1013.7
20260509141401 64 162 0.9 4.3 0.34 0.65 0.39 96 1013.7
20260509141301 64 203 0.0 4.3 0.35 0.65 0.39 97 1013.7
20260509141201 64 125 0.0 4.3 0.36 0.65 0.39 97 1013.7
20260509141102 64 191 1.7 4.3 0.37 0.65 0.39 97 1013.8
20260509141005 64 190 2.6 4.3 0.37 0.65 0.39 97 1013.8
20260509140901 64 204 1.7 4.3 0.36 0.64 0.38 97 1013.9
20260509140803 64 219 0.0 4.3 0.37 0.64 0.38 97 1013.8
20260509140701 64 151 0.0 4.3 0.37 0.64 0.38 97 1013.8
20260509140600 64 165 4.3 4.3 0.37 0.64 0.38 96 1013.9
20260509140504 64 173 1.7 3.5 0.37 0.64 0.38 97 1013.9
20260509140403 64 188 0.9 3.5 0.37 0.64 0.38 97 1014.0
20260509140303 64 178 3.5 3.5 0.37 0.64 0.38 97 1014.0
20260509140201 64 236 0.9 3.5 0.37 0.64 0.38 97 1014.0
20260509140008 64 160 0.0 3.5 0.37 0.64 0.38 97 1013.9
20260509135904 64 197 2.6 3.5 0.37 0.64 0.38 97 1014.0
20260509135804 64 160 0.9 2.6 0.37 0.64 0.38 97 1014.0
20260509135703 64 148 1.7 2.6 0.37 0.64 0.38 97 1014.1
20260509135602 64 203 0.0 2.6 0.37 0.64 0.38 97 1014.1
20260509135505 64 199 2.6 2.6 0.36 0.63 0.37 97 1014.1
20260509135403 64 171 0.0 2.6 0.36 0.63 0.37 97 1014.0
20260509135305 64 139 0.0 2.6 0.36 0.63 0.37 97 1014.0
20260509135203 64 160 0.0 2.6 0.36 0.63 0.37 97 1014.1
20260509135007 64 127 0.0 2.6 0.36 0.63 0.37 97 1014.3
20260509134902 64 69 1.7 1.7 0.35 0.62 0.36 96 1014.4
20260509134802 64 148 0.0 2.6 0.35 0.62 0.36 96 1014.4
20260509134702 64 64 0.0 2.6 0.35 0.62 0.36 96 1014.4
20260509134602 64 64 0.0 2.6 0.36 0.62 0.36 96 1014.4
20260509134506 64 41 0.0 2.6 0.36 0.62 0.36 96 1014.4
20260509134401 64 186 0.9 3.5 0.36 0.62 0.36 96 1014.3
20260509134203 64 192 0.0 3.5 0.35 0.61 0.35 96 1014.3
20260509134102 64 214 0.0 3.5 0.35 0.61 0.35 96 1014.2
20260509134007 64 244 0.0 3.5 0.35 0.61 0.35 96 1014.2
20260509133902 64 183 2.6 3.5 0.35 0.61 0.35 96 1014.2
20260509133802 64 219 0.0 3.5 0.35 0.61 0.35 96 1014.2
20260509133702 64 200 0.9 6.1 0.35 0.61 0.35 96 1014.2
20260509133602 64 181 0.0 6.1 0.35 0.61 0.35 96 1014.2
20260509133506 64 134 0.0 6.1 0.35 0.61 0.35 96 1014.2
20260509133103 64 8 1.7 6.1 0.34 0.60 0.34 96 1014.1
20260509133006 64 104 0.0 6.1 0.33 0.59 0.33 96 1014.1
20260509132902 64 360 0.9 6.1 0.32 0.58 0.32 96 1014.1
20260509132803 64 4 1.7 5.2 0.29 0.55 0.29 96 1014.0
20260509132702 64 17 2.6 5.2 0.26 0.52 0.26 96 1014.1
20260509132602 64 158 0.0 5.2 0.21 0.47 0.21 96 1014.0
20260509132506 64 356 0.0 5.2 0.20 0.46 0.20 96 1014.0
20260509132403 64 33 0.0 5.2 0.20 0.46 0.20 96 1014.0
20260509132306 64 74 0.9 5.2 0.20 0.46 0.20 96 1014.1
20260509132203 64 219 2.6 5.2 0.19 0.45 0.19 96 1014.1
20260509132103 64 312 1.7 5.2 0.18 0.44 0.18 96 1014.1
20260509131903 64 236 3.5 5.2 0.15 0.41 0.15 96 1014.2
20260509131704 64 319 1.7 5.2 0.13 0.39 0.13 97 1014.2
20260509131602 64 233 0.9 3.5 0.10 0.36 0.10 97 1014.1
20260509131506 64 56 1.7 3.5 0.07 0.33 0.07 97 1014.1
20260509131303 64 268 2.6 3.5 0.04 0.30 0.04 97 1014.1
20260509131202 64 330 0.0 2.6 0.03 0.29 0.03 97 1014.1
20260509131104 64 316 0.0 2.6 0.02 0.28 0.02 97 1014.1
20260509131006 64 316 0.0 2.6 0.02 0.28 0.02 97 1014.0
20260509130902 64 314 0.0 5.2 0.02 0.28 0.02 97 1014.0
20260509130802 64 202 0.0 5.2 0.01 0.27 0.01 97 1013.9
20260509130703 64 342 0.0 5.2 0.01 0.27 0.01 97 1013.9
20260509130506 64 33 0.0 5.2 0.01 0.27 0.01 97 1014.1
20260509130403 64 355 0.0 5.2 0.01 0.27 0.01 97 1014.1
20260509130202 64 120 0.0 5.2 0.01 0.27 0.01 97 1014.2
20260509130007 64 359 4.3 4.3 0.01 0.27 0.01 97 1014.2
20260509125902 64 285 0.0 2.6 0.01 0.27 0.01 97 1014.2
20260509125701 64 3 0.0 2.6 0.01 0.27 0.01 97 1014.0
20260509125601 64 338 0.0 2.6 0.01 0.27 0.01 97 1014.0
20260509125505 64 356 1.7 2.6 0.01 0.27 0.01 97 1014.0
20260509125201 64 307 0.0 2.6 0.01 0.27 0.01 97 1013.9
20260509125101 64 56 0.0 1.7 0.01 0.27 0.01 97 1013.7
20260509125006 64 56 0.0 1.7 0.01 0.27 0.01 97 1013.7
20260509124900 64 74 0.0 1.7 0.01 0.27 0.01 97 1013.7
20260509124802 64 74 0.0 1.7 0.01 0.27 0.01 97 1013.8
20260509124702 64 56 0.0 1.7 0.01 0.27 0.01 97 1013.8
20260509124602 64 6 0.0 1.7 0.00 0.26 0.00 97 1013.9
20260509124505 64 255 0.0 1.7 0.00 0.26 0.00 97 1013.9
20260509124402 64 255 0.0 1.7 0.00 0.26 0.00 97 1013.9
20260509124101 64 239 0.0 0.0 0.00 0.26 0.00 97 1013.9
20260509124005 64 239 0.0 0.9 0.00 0.26 0.00 97 1013.9
20260509123801 64 239 0.0 0.9 0.00 0.26 0.00 97 1013.8
20260509123701 64 239 0.0 0.9 0.00 0.26 0.00 97 1013.7
20260509123602 64 239 0.0 0.9 0.00 0.26 0.00 97 1013.7
20260509123505 64 239 0.0 0.9 0.00 0.26 0.00 97 1013.8
20260509123401 64 239 0.0 0.9 0.00 0.26 0.00 97 1013.8
20260509123301 64 239 0.0 0.9 0.00 0.26 0.00 97 1013.8
20260509123201 64 325 0.0 0.9 0.00 0.26 0.00 97 1013.9
20260509123101 64 283 0.0 0.9 0.00 0.26 0.00 97 1013.9
20260509123006 64 236 0.0 0.0 0.00 0.26 0.00 96 1013.9
20260509122901 64 277 0.0 1.7 0.00 0.26 0.00 96 1013.7
20260509122801 64 277 0.0 1.7 0.00 0.26 0.00 96 1013.7
20260509122702 64 277 0.0 1.7 0.00 0.26 0.00 96 1013.8
20260509122601 64 277 0.0 1.7 0.00 0.26 0.00 96 1013.8
20260509122402 64 277 0.0 1.7 0.00 0.26 0.00 96 1013.8
20260509122305 64 277 0.0 1.7 0.00 0.26 0.00 96 1013.7
20260509122201 64 293 0.0 1.7 0.00 0.26 0.00 96 1013.6
20260509122006 64 318 0.0 1.7 0.00 0.26 0.00 96 1013.5
20260509121901 64 312 0.9 1.7 0.00 0.26 0.00 96 1013.4
20260509121800 64 238 0.0 1.7 0.00 0.26 0.00 96 1013.3
20260509121702 64 238 0.0 1.7 0.00 0.26 0.00 96 1013.3
20260509121601 64 314 0.0 1.7 0.00 0.26 0.00 96 1013.3
20260509121506 64 293 0.9 0.9 0.00 0.26 0.00 96 1013.3
20260509121402 64 281 0.0 0.9 0.00 0.26 0.00 96 1013.3
20260509121301 64 281 0.0 0.9 0.00 0.26 0.00 96 1013.3
20260509121202 64 281 0.0 1.7 0.00 0.26 0.00 96 1013.3
20260509121102 64 281 0.0 2.6 0.00 0.26 0.00 96 1013.2
20260509121006 64 281 0.0 2.6 0.00 0.26 0.00 96 1013.2
20260509120901 64 281 0.0 2.6 0.00 0.26 0.00 96 1013.2
20260509120801 64 281 0.0 2.6 0.00 0.26 0.00 97 1013.2
20260509120402 64 236 0.0 2.6 0.00 0.26 0.00 96 1013.3
20260509120201 64 223 0.9 1.7 0.00 0.26 0.00 96 1013.1
20260509120007 64 235 0.0 0.9 0.00 0.26 0.00 96 1013.1
20260509115802 64 37 0.0 0.9 0.00 0.26 0.00 96 1013.0
20260509115701 64 37 0.0 0.9 0.00 0.26 0.00 96 1013.0
20260509115505 64 236 0.0 1.7 0.00 0.26 0.00 96 1012.9
20260509115401 64 52 0.0 1.7 0.00 0.26 0.00 97 1012.9
20260509115301 64 307 0.0 1.7 0.00 0.26 0.00 96 1012.9
20260509115202 64 355 0.0 1.7 0.00 0.26 0.00 97 1012.9
20260509115102 64 309 0.0 1.7 0.00 0.26 0.00 97 1012.9
20260509115005 64 309 0.0 1.7 0.00 0.26 0.00 97 1012.9
20260509114902 64 309 0.0 1.7 0.00 0.26 0.00 97 1012.8
20260509114801 64 306 0.0 1.7 0.00 0.26 0.00 97 1012.8
20260509114702 64 314 0.0 1.7 0.00 0.26 0.00 96 1012.7
20260509114601 64 314 1.7 1.7 0.00 0.26 0.00 96 1012.6
20260509114506 64 304 0.9 0.9 0.00 0.26 0.00 96 1012.5
20260509114402 64 319 0.0 0.9 0.00 0.26 0.00 97 1012.5
20260509114302 64 285 0.0 0.9 0.00 0.26 0.00 96 1012.5
20260509114202 64 350 0.0 0.9 0.00 0.26 0.00 96 1012.5
20260509113901 64 350 0.0 1.7 0.00 0.26 0.00 97 1012.4
20260509113801 64 350 0.0 1.7 0.00 0.26 0.00 97 1012.4
20260509113601 64 323 0.0 1.7 0.00 0.26 0.00 97 1012.4
20260509113505 63 164 0.0 1.7 0.00 0.26 0.00 97 1012.3
20260509113401 63 164 0.0 1.7 0.00 0.26 0.00 97 1012.3
20260509113302 63 164 0.0 1.7 0.00 0.26 0.00 97 1012.2
20260509113203 63 231 0.0 1.7 0.00 0.26 0.00 97 1012.2
20260509113101 63 165 0.9 1.7 0.00 0.26 0.00 97 1012.2
20260509113006 63 153 1.7 1.7 0.00 0.26 0.00 97 1012.2
20260509112900 63 178 0.0 1.7 0.00 0.26 0.00 97 1012.1
20260509112802 63 193 0.0 0.0 0.00 0.26 0.00 97 1012.0
20260509112702 63 241 0.0 0.0 0.00 0.26 0.00 97 1012.0
20260509112601 63 241 0.0 0.0 0.00 0.26 0.00 97 1012.1
20260509112505 63 241 0.0 0.0 0.00 0.26 0.00 97 1012.1
20260509112401 63 241 0.0 0.0 0.00 0.26 0.00 97 1012.0
20260509112301 63 241 0.0 0.0 0.00 0.26 0.00 97 1012.0
20260509112201 63 241 0.0 0.0 0.00 0.26 0.00 97 1011.9
20260509112101 63 241 0.0 0.9 0.00 0.26 0.00 97 1011.8
20260509112006 63 241 0.0 0.9 0.00 0.26 0.00 97 1011.9
20260509111801 63 241 0.0 0.9 0.00 0.26 0.00 97 1011.8
20260509111702 63 241 0.0 0.9 0.00 0.26 0.00 97 1011.8
20260509111602 63 257 0.0 0.9 0.00 0.26 0.00 97 1011.9
20260509111506 63 257 0.0 0.9 0.00 0.26 0.00 97 1011.9
20260509111300 63 257 0.0 0.9 0.00 0.26 0.00 97 1011.9
20260509111201 63 255 0.0 0.9 0.00 0.26 0.00 97 1012.0
20260509111102 63 285 0.0 0.9 0.00 0.26 0.00 97 1012.0
20260509111005 63 231 0.0 0.0 0.00 0.26 0.00 97 1012.0
20260509110901 63 306 0.0 0.9 0.00 0.26 0.00 97 1011.9
20260509110802 63 306 0.0 0.9 0.00 0.26 0.00 96 1011.8
20260509110702 63 306 0.0 0.9 0.00 0.26 0.00 96 1011.7
20260509110601 63 306 0.0 0.9 0.00 0.26 0.00 96 1011.7
20260509110401 63 109 0.0 0.9 0.00 0.26 0.00 96 1011.7
20260509110301 63 109 0.0 0.9 0.00 0.26 0.00 96 1011.6
20260509110201 63 109 0.0 0.9 0.00 0.26 0.00 96 1011.5
20260509110007 63 109 0.0 0.9 0.00 0.26 0.00 96 1011.5
20260509105402 63 267 0.0 0.9 0.00 0.26 0.00 96 1011.5
20260509105306 63 267 0.0 0.9 0.00 0.26 0.00 96 1011.5
20260509105203 63 267 0.0 0.9 0.00 0.26 0.00 96 1011.5
20260509105006 63 267 0.0 0.9 0.00 0.26 0.00 96 1011.5
20260509104903 63 267 0.0 0.9 0.00 0.26 0.00 96 1011.5
20260509104802 63 285 0.0 0.9 0.00 0.26 0.00 96 1011.5
20260509104603 63 131 0.0 0.0 0.00 0.26 0.00 96 1011.4
20260509104506 63 131 0.0 0.9 0.00 0.26 0.00 96 1011.4
20260509104403 63 131 0.0 1.7 0.00 0.26 0.00 96 1011.4
20260509104302 63 131 0.0 1.7 0.00 0.26 0.00 96 1011.2
20260509104204 63 131 0.0 1.7 0.00 0.26 0.00 96 1011.2
20260509104108 63 131 0.0 1.7 0.00 0.26 0.00 96 1011.1
20260509104007 63 131 0.0 1.7 0.00 0.26 0.00 96 1011.1
20260509103903 63 131 0.0 1.7 0.00 0.26 0.00 96 1011.1
20260509103803 63 130 0.0 1.7 0.00 0.26 0.00 96 1011.1
20260509103702 63 108 0.0 1.7 0.00 0.26 0.00 96 1011.2
20260509103602 63 202 0.0 1.7 0.00 0.26 0.00 96 1011.2
20260509103506 63 202 0.0 1.7 0.00 0.26 0.00 96 1011.3
20260509103402 63 110 0.0 1.7 0.00 0.26 0.00 96 1011.2
20260509103302 63 137 0.0 1.7 0.00 0.26 0.00 96 1011.3
20260509103203 63 186 0.0 1.7 0.00 0.26 0.00 96 1011.4
20260509103103 63 148 0.0 1.7 0.00 0.26 0.00 96 1011.4
20260509102904 63 148 0.0 1.7 0.00 0.26 0.00 96 1011.4
20260509102702 63 148 0.0 2.6 0.00 0.26 0.00 96 1011.2
20260509102403 63 144 0.0 2.6 0.00 0.26 0.00 96 1011.2
20260509102305 63 144 0.0 2.6 0.00 0.26 0.00 96 1011.2
20260509102202 63 144 0.0 2.6 0.00 0.26 0.00 96 1011.1
20260509102006 63 131 0.0 2.6 0.00 0.26 0.00 96 1011.1
20260509101903 63 162 0.9 2.6 0.00 0.26 0.00 96 1011.2
20260509101802 63 148 1.7 2.6 0.00 0.26 0.00 96 1011.3
20260509101702 63 179 0.0 1.7 0.00 0.26 0.00 96 1011.4
20260509101602 63 162 0.0 1.7 0.00 0.26 0.00 96 1011.4
20260509101506 63 222 0.0 1.7 0.00 0.26 0.00 96 1011.4
20260509101403 63 228 0.0 1.7 0.00 0.26 0.00 96 1011.5
20260509101303 63 228 0.0 1.7 0.00 0.26 0.00 96 1011.5
20260509101203 63 193 0.0 1.7 0.00 0.26 0.00 96 1011.6
20260509101102 63 197 0.0 1.7 0.00 0.26 0.00 96 1011.5
20260509101006 63 153 0.0 1.7 0.00 0.26 0.00 96 1011.5
20260509100802 63 155 0.0 1.7 0.00 0.26 0.00 96 1011.6
20260509100703 63 288 0.0 1.7 0.00 0.26 0.00 96 1011.6
20260509100603 63 288 0.0 1.7 0.00 0.26 0.00 96 1011.6
20260509100506 63 288 0.0 1.7 0.00 0.26 0.00 96 1011.8
20260509100401 63 289 0.0 1.7 0.00 0.26 0.00 96 1011.9
20260509100203 63 295 1.7 1.7 0.00 0.26 0.00 96 1011.7
20260509100007 63 123 0.0 1.7 0.00 0.26 0.00 96 1011.6
20260509095901 63 123 0.0 1.7 0.00 0.26 0.00 96 1011.4
20260509095801 63 123 0.0 1.7 0.00 0.26 0.00 96 1011.4
20260509095702 63 123 0.0 1.7 0.00 0.26 0.00 96 1011.4
20260509095601 63 123 0.0 1.7 0.00 0.26 0.00 96 1011.5
20260509095305 63 141 1.7 1.7 0.00 0.26 0.00 96 1011.5
20260509095102 63 122 0.0 1.7 0.00 0.26 0.00 96 1011.4
20260509095005 63 122 0.0 1.7 0.00 0.26 0.00 96 1011.4
20260509094901 63 122 0.0 1.7 0.00 0.26 0.00 96 1011.6
20260509094802 63 137 0.0 1.7 0.00 0.26 0.00 96 1011.6
20260509094701 63 172 1.7 1.7 0.00 0.26 0.00 96 1011.5
20260509094602 63 129 0.0 0.0 0.00 0.26 0.00 96 1011.6
20260509094506 63 232 0.0 0.0 0.00 0.26 0.00 96 1011.6
20260509094301 63 232 0.0 0.0 0.00 0.26 0.00 96 1011.6
20260509094201 63 232 0.0 0.0 0.00 0.26 0.00 96 1011.6
20260509094101 63 232 0.0 0.9 0.00 0.26 0.00 96 1011.7
20260509094006 63 232 0.0 0.9 0.00 0.26 0.00 96 1011.7
20260509093801 63 251 0.0 0.9 0.00 0.26 0.00 96 1011.6
20260509093702 63 251 0.0 0.9 0.00 0.26 0.00 96 1011.6
20260509093601 63 251 0.0 1.7 0.00 0.26 0.00 96 1011.5
20260509093505 63 251 0.0 1.7 0.00 0.26 0.00 96 1011.6
20260509093202 63 258 0.0 1.7 0.00 0.26 0.00 96 1011.6
20260509093101 63 162 0.0 1.7 0.00 0.26 0.00 96 1011.6
20260509092801 63 216 0.0 1.7 0.00 0.26 0.00 96 1011.6
20260509092702 63 146 0.0 1.7 0.00 0.26 0.00 96 1011.6
20260509092601 63 150 0.0 1.7 0.00 0.26 0.00 96 1011.7
20260509092505 63 151 1.7 1.7 0.00 0.26 0.00 96 1011.7
20260509092402 63 150 0.0 1.7 0.00 0.26 0.00 96 1011.7
20260509092305 63 169 0.0 1.7 0.00 0.26 0.00 96 1011.7
20260509092201 63 146 0.0 0.9 0.00 0.26 0.00 96 1011.7
20260509092101 63 256 0.0 0.9 0.00 0.26 0.00 96 1011.7
20260509092005 63 256 0.0 0.9 0.00 0.26 0.00 96 1011.8
20260509091901 63 256 0.0 0.9 0.00 0.26 0.00 96 1011.8
20260509091702 63 256 0.0 0.9 0.00 0.26 0.00 96 1011.8
20260509091602 63 256 0.0 0.9 0.00 0.26 0.00 96 1011.9
20260509091505 63 256 0.0 1.7 0.00 0.26 0.00 96 1011.9
20260509091401 63 247 0.0 1.7 0.00 0.26 0.00 96 1011.9
20260509091201 63 224 0.0 1.7 0.00 0.26 0.00 96 1011.9
20260509091102 63 224 0.0 1.7 0.00 0.26 0.00 96 1011.8
20260509091006 63 224 0.0 1.7 0.00 0.26 0.00 96 1011.8
20260509090901 63 224 0.0 1.7 0.00 0.26 0.00 96 1011.8
20260509090801 63 224 0.0 1.7 0.00 0.26 0.00 96 1011.8
20260509090701 63 223 0.0 1.7 0.00 0.26 0.00 96 1011.9
20260509090603 63 241 0.0 1.7 0.00 0.26 0.00 96 1011.8
20260509090401 63 258 0.0 0.9 0.00 0.26 0.00 96 1011.8
20260509090301 63 255 0.0 0.9 0.00 0.26 0.00 96 1011.9
20260509090201 63 255 0.0 0.9 0.00 0.26 0.00 96 1011.8
20260509090101 63 255 0.0 1.7 0.00 0.26 0.00 96 1011.8
20260509090007 63 255 0.0 1.7 0.00 0.26 0.00 96 1011.8
20260509085903 63 255 0.0 1.7 0.00 0.26 0.00 96 1011.9
20260509085703 63 251 0.0 1.7 0.00 0.26 0.00 96 1011.8
20260509085602 63 270 0.0 1.7 0.00 0.26 0.00 96 1011.9
20260509085403 63 277 0.0 1.7 0.00 0.26 0.00 96 1011.9
20260509085306 63 277 0.0 1.7 0.00 0.26 0.00 96 1011.9
20260509085203 63 294 0.0 1.7 0.00 0.26 0.00 96 1011.8
20260509085102 63 277 0.0 1.7 0.00 0.26 0.00 96 1011.9
20260509085007 63 284 0.0 1.7 0.00 0.26 0.00 96 1011.9
20260509084903 63 238 0.0 1.7 0.00 0.26 0.00 96 1011.9
20260509084803 63 247 0.0 1.7 0.00 0.26 0.00 96 1011.9
20260509084702 62 238 0.0 0.0 0.00 0.26 0.00 96 1011.8
20260509084603 62 238 0.0 0.0 0.00 0.26 0.00 96 1011.8
20260509084505 62 238 0.0 0.0 0.00 0.26 0.00 96 1011.8
20260509084403 62 238 0.0 0.0 0.00 0.26 0.00 96 1011.7
20260509084303 62 238 0.0 0.0 0.00 0.26 0.00 96 1011.8
20260509084203 62 238 0.0 0.9 0.00 0.26 0.00 96 1011.8
20260509084102 62 159 0.0 0.9 0.00 0.26 0.00 96 1011.8
20260509084006 62 293 0.0 0.9 0.00 0.26 0.00 96 1011.8
20260509083802 62 290 0.0 0.9 0.00 0.26 0.00 96 1011.8
20260509083603 63 292 0.0 0.9 0.00 0.26 0.00 96 1011.8
20260509083506 62 291 0.0 0.9 0.00 0.26 0.00 96 1011.8
20260509083401 62 292 0.0 0.9 0.00 0.26 0.00 96 1011.8
20260509083302 62 293 0.0 0.9 0.00 0.26 0.00 96 1011.8
20260509083203 62 245 0.0 1.7 0.00 0.26 0.00 96 1011.9
20260509083103 62 153 0.0 1.7 0.00 0.26 0.00 96 1011.8
20260509083007 62 153 0.0 1.7 0.00 0.26 0.00 96 1011.8
20260509082902 62 153 0.0 1.7 0.00 0.26 0.00 96 1011.8
20260509082802 62 153 0.0 1.7 0.00 0.26 0.00 96 1011.9
20260509082702 62 153 0.0 1.7 0.00 0.26 0.00 96 1011.9
20260509082602 62 153 0.0 1.7 0.00 0.26 0.00 96 1011.9
20260509082506 62 153 0.0 1.7 0.00 0.26 0.00 96 1011.9
20260509082403 62 153 0.0 1.7 0.00 0.26 0.00 96 1011.9
20260509082306 62 153 0.0 1.7 0.00 0.26 0.00 96 1011.9
20260509082202 62 127 0.0 1.7 0.00 0.26 0.00 96 1011.9
20260509082103 62 148 0.0 1.7 0.00 0.26 0.00 96 1011.9
20260509082005 62 148 0.0 1.7 0.00 0.26 0.00 96 1011.9
20260509081903 62 148 0.0 1.7 0.00 0.26 0.00 96 1012.0
20260509081803 62 174 1.7 1.7 0.00 0.26 0.00 96 1012.0
20260509081701 62 277 0.0 1.7 0.00 0.26 0.00 96 1012.0
20260509081506 62 255 0.0 1.7 0.00 0.26 0.00 96 1012.0
20260509081401 63 255 0.0 1.7 0.00 0.26 0.00 96 1012.1
20260509081302 63 248 0.0 1.7 0.00 0.26 0.00 96 1012.0
20260509081202 62 271 0.0 0.9 0.00 0.26 0.00 96 1012.0
20260509081103 62 231 0.0 0.9 0.00 0.26 0.00 96 1012.1
20260509081007 62 231 0.0 1.7 0.00 0.26 0.00 96 1012.1
20260509080902 62 231 0.0 2.6 0.00 0.26 0.00 96 1012.0
20260509080802 62 231 0.0 2.6 0.00 0.26 0.00 96 1012.0
20260509080702 62 231 0.0 2.6 0.00 0.26 0.00 96 1012.1
20260509080604 62 231 0.0 2.6 0.00 0.26 0.00 96 1012.1
20260509080402 63 231 0.0 2.6 0.00 0.26 0.00 96 1012.1
20260509080202 63 230 0.0 2.6 0.00 0.26 0.00 96 1012.1
20260509080006 63 272 0.0 2.6 0.00 0.26 0.00 96 1012.0
20260509075901 63 278 0.0 2.6 0.00 0.26 0.00 96 1012.0
20260509075801 63 262 0.0 2.6 0.00 0.26 0.00 96 1012.0
20260509075701 62 250 0.0 2.6 0.00 0.26 0.00 96 1012.0
20260509075401 62 212 0.0 0.0 0.00 0.26 0.00 96 1011.9
20260509075300 62 212 0.0 0.9 0.00 0.26 0.00 96 1011.7
20260509075201 62 212 0.0 0.9 0.00 0.26 0.00 96 1011.8
20260509075006 62 212 0.0 0.9 0.00 0.26 0.00 96 1011.7
20260509074901 62 212 0.0 0.9 0.00 0.26 0.00 96 1011.7
20260509074701 63 212 0.0 0.9 0.00 0.26 0.00 96 1011.7
20260509074601 62 212 0.0 0.9 0.00 0.26 0.00 96 1011.8
20260509074506 62 212 0.0 0.9 0.00 0.26 0.00 96 1011.8
20260509074202 62 238 0.0 2.6 0.00 0.26 0.00 96 1011.8
20260509074006 62 238 0.0 2.6 0.00 0.26 0.00 96 1011.7
20260509073901 63 238 0.0 2.6 0.00 0.26 0.00 96 1011.8
20260509073700 63 238 0.0 2.6 0.00 0.26 0.00 96 1011.8
20260509073601 63 238 0.0 2.6 0.00 0.26 0.00 96 1011.8
20260509073505 63 255 0.9 2.6 0.00 0.26 0.00 96 1011.8
20260509073201 63 245 1.7 2.6 0.00 0.26 0.00 96 1011.7
20260509073102 63 248 1.7 2.6 0.00 0.26 0.00 96 1011.8
20260509073007 63 210 0.0 2.6 0.00 0.26 0.00 96 1011.8
20260509072901 63 210 0.0 2.6 0.00 0.26 0.00 96 1011.8
20260509072701 63 244 0.0 2.6 0.00 0.26 0.00 96 1011.9
20260509072601 63 264 0.0 2.6 0.00 0.26 0.00 96 1012.0
20260509072505 63 264 0.0 2.6 0.00 0.26 0.00 96 1012.0
20260509072301 63 246 1.7 2.6 0.00 0.26 0.00 96 1012.2
20260509072202 63 238 1.7 1.7 0.00 0.26 0.00 96 1012.2
20260509072102 63 278 0.9 1.7 0.00 0.26 0.00 96 1012.2
20260509072005 63 245 0.0 1.7 0.00 0.26 0.00 96 1012.2
20260509071902 63 245 0.0 2.6 0.00 0.26 0.00 96 1012.2
20260509071801 63 245 0.0 2.6 0.00 0.26 0.00 96 1012.2
20260509071701 63 245 0.0 2.6 0.00 0.26 0.00 96 1012.3
20260509071601 63 245 0.0 2.6 0.00 0.26 0.00 96 1012.3
20260509071505 63 245 0.0 2.6 0.00 0.26 0.00 96 1012.3
20260509071401 63 259 0.0 2.6 0.00 0.26 0.00 96 1012.3
20260509071302 63 248 0.0 2.6 0.00 0.26 0.00 96 1012.2
20260509071201 63 234 0.0 2.6 0.00 0.26 0.00 96 1012.2
20260509071101 63 250 1.7 2.6 0.00 0.26 0.00 96 1012.2
20260509071005 63 255 0.0 2.6 0.00 0.26 0.00 96 1012.2
20260509070901 63 244 0.0 2.6 0.00 0.26 0.00 96 1012.1
20260509070803 63 252 0.9 2.6 0.00 0.26 0.00 96 1012.1
20260509070703 63 260 2.6 2.6 0.00 0.26 0.00 96 1012.0
20260509070602 63 255 1.7 2.6 0.00 0.26 0.00 96 1012.0
20260509070505 63 262 1.7 2.6 0.00 0.26 0.00 96 1012.0
20260509070401 63 248 0.9 1.7 0.00 0.26 0.00 96 1011.9
20260509070301 63 248 1.7 1.7 0.00 0.26 0.00 96 1011.8
20260509070201 63 169 0.0 1.7 0.00 0.26 0.00 96 1011.8
20260509070006 63 227 0.0 1.7 0.00 0.26 0.00 96 1011.8
20260509065902 63 227 0.0 1.7 0.00 0.26 0.00 96 1011.7
20260509065802 63 227 0.0 1.7 0.00 0.26 0.00 96 1011.7
20260509065701 63 227 0.0 1.7 0.00 0.26 0.00 96 1011.8
20260509065602 63 227 0.0 1.7 0.00 0.26 0.00 96 1011.8
20260509065505 63 227 0.0 2.6 0.00 0.26 0.00 96 1011.8
20260509065402 63 227 0.0 2.6 0.00 0.26 0.00 96 1011.9
20260509065202 63 201 0.0 2.6 0.00 0.26 0.00 96 1011.9
20260509065101 63 174 0.0 2.6 0.00 0.26 0.00 96 1011.9
20260509065005 63 195 0.0 2.6 0.00 0.26 0.00 96 1011.9
20260509064801 63 235 0.0 2.6 0.00 0.26 0.00 96 1012.0
20260509064601 63 275 1.7 1.7 0.00 0.26 0.00 96 1012.1
20260509064301 63 233 0.0 1.7 0.00 0.26 0.00 96 1012.1
20260509064201 63 233 0.0 2.6 0.00 0.26 0.00 95 1012.1
20260509064006 63 233 0.0 2.6 0.00 0.26 0.00 95 1012.0
20260509063901 63 233 0.0 2.6 0.00 0.26 0.00 95 1012.2
20260509063601 63 238 0.0 2.6 0.00 0.26 0.00 95 1012.2
20260509063505 63 248 0.0 2.6 0.00 0.26 0.00 95 1012.2
20260509063301 63 272 1.7 2.6 0.00 0.26 0.00 95 1012.1
20260509063201 63 286 0.0 0.9 0.00 0.26 0.00 95 1012.1
20260509063103 63 230 0.0 0.9 0.00 0.26 0.00 95 1012.0
20260509063005 63 230 0.0 0.9 0.00 0.26 0.00 95 1012.0
20260509062902 63 230 0.0 0.9 0.00 0.26 0.00 95 1012.1
20260509062801 63 230 0.0 1.7 0.00 0.26 0.00 95 1012.0
20260509062701 63 230 0.0 1.7 0.00 0.26 0.00 96 1012.0
20260509062601 63 230 0.0 1.7 0.00 0.26 0.00 96 1012.1
20260509062505 63 230 0.0 1.7 0.00 0.26 0.00 96 1012.1
20260509062401 63 243 0.9 1.7 0.00 0.26 0.00 96 1012.2
20260509062301 63 292 0.0 1.7 0.00 0.26 0.00 96 1012.2
20260509062201 63 252 0.0 1.7 0.00 0.26 0.00 96 1012.2
20260509062005 63 311 0.9 1.7 0.00 0.26 0.00 96 1012.1
20260509061902 63 316 0.9 0.9 0.00 0.26 0.00 96 1012.0
20260509061802 63 306 0.0 0.0 0.00 0.26 0.00 95 1012.0
20260509061601 63 306 0.0 0.0 0.00 0.26 0.00 95 1012.0
20260509061505 63 306 0.0 0.9 0.00 0.26 0.00 95 1012.0
20260509061401 63 306 0.0 0.9 0.00 0.26 0.00 95 1012.2
20260509061300 63 306 0.0 0.9 0.00 0.26 0.00 95 1012.3
20260509061202 63 306 0.0 0.9 0.00 0.26 0.00 95 1012.3
20260509061102 63 306 0.0 0.9 0.00 0.26 0.00 95 1012.3
20260509060901 63 306 0.0 0.9 0.00 0.26 0.00 95 1012.2
20260509060702 63 288 0.0 0.9 0.00 0.26 0.00 95 1012.2
20260509060504 63 238 0.0 0.0 0.00 0.26 0.00 95 1012.1
20260509060400 63 238 0.0 0.0 0.00 0.26 0.00 95 1012.1
20260509060202 63 238 0.0 0.9 0.00 0.26 0.00 95 1012.1
20260509060007 63 238 0.0 0.9 0.00 0.26 0.00 95 1012.1
20260509055903 63 238 0.0 0.9 0.00 0.26 0.00 95 1012.1
20260509055703 63 218 0.0 0.9 0.00 0.26 0.00 95 1012.3
20260509055603 63 206 0.0 0.9 0.00 0.26 0.00 95 1012.3
20260509055506 63 206 0.0 0.9 0.00 0.26 0.00 95 1012.3
20260509055403 63 167 0.0 0.9 0.00 0.26 0.00 95 1012.3
20260509055203 63 237 0.0 0.0 0.00 0.26 0.00 95 1012.3
20260509055104 63 237 0.0 0.0 0.00 0.26 0.00 95 1012.3
20260509055008 63 237 0.0 0.0 0.00 0.26 0.00 95 1012.4
20260509054904 64 237 0.0 0.0 0.00 0.26 0.00 95 1012.4
20260509054803 63 237 0.0 0.0 0.00 0.26 0.00 95 1012.4
20260509054703 63 237 0.0 0.0 0.00 0.26 0.00 95 1012.3
20260509054602 64 237 0.0 0.0 0.00 0.26 0.00 95 1012.4
20260509054506 64 237 0.0 0.0 0.00 0.26 0.00 95 1012.4
20260509054403 64 237 0.0 0.9 0.00 0.26 0.00 95 1012.4
20260509054303 64 237 0.0 0.9 0.00 0.26 0.00 95 1012.5
20260509054203 64 237 0.0 0.9 0.00 0.26 0.00 95 1012.5
20260509054104 64 237 0.0 0.9 0.00 0.26 0.00 95 1012.5
20260509054005 64 237 0.0 0.9 0.00 0.26 0.00 95 1012.5
20260509053903 64 237 0.0 0.9 0.00 0.26 0.00 95 1012.4
20260509053803 64 237 0.0 0.9 0.00 0.26 0.00 95 1012.4
20260509053703 64 237 0.0 0.9 0.00 0.26 0.00 95 1012.5
20260509053506 64 243 0.0 0.9 0.00 0.26 0.00 95 1012.4
20260509053404 64 246 0.0 0.9 0.00 0.26 0.00 95 1012.3
20260509053303 64 246 0.0 0.9 0.00 0.26 0.00 95 1012.2
20260509053204 64 246 0.0 0.9 0.00 0.26 0.00 95 1012.2
20260509053007 64 237 0.0 1.7 0.00 0.26 0.00 95 1012.3
20260509052902 64 244 0.0 1.7 0.00 0.26 0.00 95 1012.2
20260509052803 64 244 0.0 2.6 0.00 0.26 0.00 95 1012.2
20260509052703 64 247 0.0 2.6 0.00 0.26 0.00 95 1012.1
20260509052603 64 54 0.0 2.6 0.00 0.26 0.00 95 1012.1
20260509052505 64 54 0.0 2.6 0.00 0.26 0.00 95 1012.1
20260509052402 64 54 0.0 2.6 0.00 0.26 0.00 95 1012.0
20260509052306 64 54 0.0 2.6 0.00 0.26 0.00 95 1012.0
20260509052204 64 141 0.0 2.6 0.00 0.26 0.00 95 1012.0
20260509052103 64 141 0.0 2.6 0.00 0.26 0.00 95 1012.1
20260509051904 64 247 0.0 2.6 0.00 0.26 0.00 95 1012.1
20260509051804 64 197 0.0 2.6 0.00 0.26 0.00 95 1012.1
20260509051403 64 139 1.7 1.7 0.00 0.26 0.00 95 1012.3
20260509051204 64 211 0.0 1.7 0.00 0.26 0.00 95 1012.3
20260509051006 64 113 0.9 2.6 0.00 0.26 0.00 95 1012.3
20260509050903 64 141 0.0 2.6 0.00 0.26 0.00 95 1012.3
20260509050803 64 61 0.0 2.6 0.00 0.26 0.00 95 1012.4
20260509050702 64 103 0.0 2.6 0.00 0.26 0.00 95 1012.5
20260509050604 64 108 0.0 2.6 0.00 0.26 0.00 95 1012.5
20260509050506 64 103 0.0 2.6 0.00 0.26 0.00 95 1012.5
20260509050404 64 122 1.7 2.6 0.00 0.26 0.00 95 1012.5
20260509050011 64 153 0.9 2.6 0.00 0.26 0.00 95 1012.6
20260509045905 64 169 1.7 2.6 0.00 0.26 0.26 95 1012.5
20260509045805 64 146 0.0 2.6 0.00 0.26 0.26 95 1012.6
20260509045705 64 141 0.0 2.6 0.00 0.26 0.26 95 1012.9
20260509045306 64 306 0.9 2.6 0.00 0.26 0.26 95 1013.1
20260509045204 64 319 0.0 2.6 0.00 0.26 0.26 95 1013.0
20260509045104 64 323 2.6 2.6 0.00 0.26 0.26 95 1012.9
20260509045007 64 304 2.6 2.6 0.00 0.26 0.26 95 1012.9
20260509044905 64 319 1.7 1.7 0.00 0.26 0.26 95 1012.7
20260509044804 64 65 0.0 1.7 0.00 0.26 0.26 95 1012.6
20260509044703 64 65 0.0 1.7 0.00 0.26 0.26 94 1012.7
20260509044604 64 65 0.0 1.7 0.00 0.26 0.26 94 1012.4
20260509044506 64 65 0.0 1.7 0.00 0.26 0.26 94 1012.4
20260509044405 64 65 0.0 1.7 0.00 0.26 0.26 94 1012.5
20260509044204 64 358 0.0 2.6 0.00 0.26 0.26 94 1012.5
20260509044105 64 358 0.0 2.6 0.00 0.26 0.26 94 1012.6
20260509044007 64 358 0.0 2.6 0.00 0.26 0.26 94 1012.7
20260509043903 64 24 0.0 2.6 0.00 0.26 0.26 94 1012.8
20260509043803 64 231 0.0 2.6 0.00 0.26 0.26 94 1012.8
20260509043704 64 231 0.0 2.6 0.00 0.26 0.26 94 1012.8
20260509043604 64 231 0.0 2.6 0.00 0.26 0.26 94 1013.0
20260509043508 64 232 0.0 2.6 0.00 0.26 0.26 94 1013.0
20260509043304 64 301 0.0 2.6 0.00 0.26 0.26 94 1012.6
20260509043205 64 311 1.7 2.6 0.00 0.26 0.26 94 1012.8
20260509043104 64 257 0.0 2.6 0.00 0.26 0.26 94 1012.8
20260509042804 64 301 0.0 2.6 0.00 0.26 0.26 94 1012.8
20260509042704 64 297 0.0 2.6 0.00 0.26 0.26 94 1012.8
20260509042605 64 328 0.0 2.6 0.00 0.26 0.26 94 1012.8
20260509042506 64 360 1.7 2.6 0.00 0.26 0.26 94 1012.6
20260509042404 64 286 0.0 2.6 0.00 0.26 0.26 94 1012.6
20260509042307 64 266 0.0 1.7 0.00 0.26 0.26 94 1012.6
20260509042104 64 263 0.0 1.7 0.00 0.26 0.26 94 1012.6
20260509041905 64 62 0.0 1.7 0.00 0.26 0.26 94 1012.5
20260509041804 64 137 0.9 1.7 0.00 0.26 0.26 94 1012.4
20260509041705 64 233 0.0 1.7 0.00 0.26 0.26 94 1012.6
20260509041605 64 139 0.0 3.5 0.00 0.26 0.26 94 1012.6
20260509041404 64 148 0.0 3.5 0.00 0.26 0.26 94 1012.6
20260509041304 64 148 0.0 3.5 0.00 0.26 0.26 94 1012.6
20260509041205 64 203 1.7 3.5 0.00 0.26 0.26 94 1012.7
20260509041104 64 231 0.0 3.5 0.00 0.26 0.26 94 1012.6
20260509041006 64 316 0.0 3.5 0.00 0.26 0.26 94 1012.6
20260509040904 64 295 0.0 3.5 0.00 0.26 0.26 94 1012.5
20260509040804 64 205 0.0 3.5 0.00 0.26 0.26 94 1012.4
20260509040703 64 158 2.6 3.5 0.00 0.26 0.26 94 1012.4
20260509040603 64 179 0.9 1.7 0.00 0.26 0.26 94 1012.4
20260509040404 64 89 0.0 0.9 0.00 0.26 0.26 94 1012.5
20260509040304 64 73 0.9 0.9 0.00 0.26 0.26 94 1012.5
20260509040203 64 155 0.0 0.9 0.00 0.26 0.26 94 1012.5
20260509040104 64 235 0.0 1.7 0.00 0.26 0.26 94 1012.5
20260509040008 64 235 0.0 1.7 0.00 0.26 0.26 94 1012.6
20260509035904 64 235 0.0 1.7 0.00 0.26 0.26 94 1012.7
20260509035803 64 235 0.0 1.7 0.01 0.26 0.26 94 1012.6
20260509035704 64 235 0.0 1.7 0.01 0.26 0.26 94 1012.8
20260509035603 64 235 0.0 1.7 0.01 0.26 0.26 94 1012.7
20260509035403 64 72 0.0 1.7 0.01 0.26 0.26 94 1012.5
20260509035306 64 72 0.0 2.6 0.01 0.26 0.26 94 1012.6
20260509035203 64 72 0.0 2.6 0.01 0.26 0.26 94 1012.7
20260509035103 64 319 0.0 2.6 0.01 0.26 0.26 94 1012.7
20260509035006 64 319 0.0 2.6 0.01 0.26 0.26 94 1012.7
20260509034704 64 358 0.0 2.6 0.02 0.26 0.26 94 1012.8
20260509034505 64 10 0.0 2.6 0.02 0.26 0.26 94 1012.9
20260509034402 64 344 1.7 2.6 0.03 0.26 0.26 94 1013.0
20260509034204 64 13 0.0 1.7 0.03 0.26 0.26 94 1013.0
20260509034103 64 58 0.0 1.7 0.03 0.26 0.26 94 1013.0
20260509034007 64 58 0.0 1.7 0.03 0.26 0.26 94 1013.0
20260509033902 64 45 1.7 2.6 0.03 0.26 0.26 94 1013.0
20260509033803 64 335 0.0 2.6 0.03 0.26 0.26 94 1013.0
20260509033704 64 104 0.0 2.6 0.03 0.26 0.26 94 1013.0
20260509033603 64 104 0.0 2.6 0.03 0.26 0.26 94 1013.0
20260509033505 64 58 0.0 2.6 0.03 0.26 0.26 94 1013.0
20260509033303 64 283 0.0 2.6 0.03 0.26 0.26 94 1013.0
20260509033203 64 321 0.0 2.6 0.03 0.26 0.26 94 1012.9
20260509033103 64 321 0.0 3.5 0.03 0.26 0.26 94 1012.8
20260509033008 64 205 0.0 3.5 0.03 0.26 0.26 94 1012.8
20260509032804 64 30 1.7 3.5 0.03 0.26 0.26 94 1012.8
20260509032603 64 66 0.9 4.3 0.03 0.26 0.26 94 1012.7
20260509032506 64 150 1.7 4.3 0.03 0.26 0.26 94 1012.7
20260509032403 64 171 0.0 4.3 0.03 0.26 0.26 94 1012.7
20260509032306 64 234 0.0 4.3 0.03 0.26 0.26 94 1012.7
20260509032203 64 297 0.0 4.3 0.03 0.26 0.26 94 1012.7
20260509032103 64 120 1.7 4.3 0.03 0.26 0.26 94 1012.4
20260509031804 64 157 1.7 3.5 0.03 0.26 0.26 94 1012.1
20260509031702 64 225 3.5 3.5 0.03 0.26 0.26 94 1011.7
20260509031604 64 141 3.5 4.3 0.03 0.26 0.26 94 1011.5
20260509031505 64 102 0.0 4.3 0.03 0.26 0.26 94 1011.5
20260509031404 64 285 1.7 4.3 0.03 0.26 0.26 94 1011.5
20260509031303 64 162 2.6 4.3 0.03 0.26 0.26 94 1011.4
20260509031203 64 281 0.0 5.2 0.03 0.26 0.26 94 1011.4
20260509031103 64 68 0.0 6.1 0.03 0.26 0.26 94 1011.6
20260509031006 64 131 2.6 7.0 0.03 0.26 0.26 93 1011.6
20260509030903 64 358 0.0 7.0 0.03 0.26 0.26 93 1011.4
20260509030803 64 113 0.0 7.0 0.03 0.26 0.26 94 1011.3
20260509030703 64 120 2.6 7.0 0.03 0.26 0.26 94 1011.2
20260509030603 64 234 0.9 7.0 0.03 0.26 0.26 94 1011.3
20260509030506 64 157 2.6 7.0 0.03 0.26 0.26 94 1011.3
20260509030404 64 153 2.6 7.0 0.03 0.26 0.26 94 1011.2
20260509030303 64 122 2.6 7.0 0.03 0.26 0.26 94 1011.2
20260509030203 64 134 4.3 7.0 0.03 0.26 0.26 94 1011.4
20260509030104 64 148 5.2 7.0 0.03 0.26 0.26 94 1011.8
20260509025903 65 146 4.3 7.0 0.03 0.26 0.26 93 1012.7
20260509025803 65 139 4.3 7.0 0.02 0.25 0.25 94 1012.9
20260509025703 65 111 3.5 7.0 0.02 0.25 0.25 94 1013.2
20260509025603 65 141 2.6 6.1 0.02 0.25 0.25 94 1013.5
20260509025505 65 143 3.5 4.3 0.02 0.25 0.25 94 1013.6
20260509025403 65 148 1.7 3.5 0.02 0.25 0.25 94 1013.8
20260509025306 65 66 2.6 3.5 0.02 0.25 0.25 94 1013.9
20260509025006 65 188 2.6 3.5 0.02 0.25 0.25 94 1014.1
20260509024903 65 179 2.6 2.6 0.02 0.25 0.25 94 1014.0
20260509024804 65 206 1.7 2.6 0.01 0.24 0.24 94 1013.9
20260509024704 65 184 0.0 2.6 0.01 0.24 0.24 94 1013.9